Time,TemperatureF,DewpointF,PressureIn,WindDirection,WindDirectionDegrees,WindSpeedMPH,WindSpeedGustMPH,Humidity,HourlyPrecipIn,Conditions,Clouds,dailyrainin,SoftwareType,DateUTC
2013-02-22 00:00:00,18.3,16.1,30.15,ENE,61,0.0,12.0,91,0.00,,OVC005,0.00,VWS V12.07,2013-02-22 06:00:00,
2013-02-22 00:01:00,18.3,16.1,30.15,SSW,192,4.0,12.0,91,0.00,,OVC005,0.00,VWS V12.07,2013-02-22 06:01:00,
2013-02-22 00:03:00,18.3,16.1,30.15,North,0,2.0,12.0,91,0.00,,OVC005,0.00,VWS V12.07,2013-02-22 06:03:00,
2013-02-22 00:06:00,18.3,16.1,30.15,SE,129,2.0,12.0,91,0.00,,OVC005,0.00,VWS V12.07,2013-02-22 06:06:00,
2013-02-22 00:08:00,18.3,16.1,30.15,SE,126,0.0,12.0,91,0.00,,OVC005,0.00,VWS V12.07,2013-02-22 06:08:00,
2013-02-22 00:11:00,18.3,16.1,30.15,NE,35,0.0,5.0,91,0.00,,OVC005,0.00,VWS V12.07,2013-02-22 06:11:00,
2013-02-22 00:12:00,18.3,16.1,30.15,ESE,103,3.0,5.0,91,0.00,,OVC005,0.00,VWS V12.07,2013-02-22 06:12:00,
2013-02-22 00:13:00,18.3,16.1,30.15,NE,51,2.0,5.0,91,0.00,,OVC005,0.00,VWS V12.07,2013-02-22 06:13:00,
2013-02-22 00:14:00,18.3,16.1,30.15,NE,51,1.0,5.0,91,0.00,,OVC005,0.00,VWS V12.07,2013-02-22 06:14:00,
2013-02-22 00:16:00,18.3,16.1,30.15,NE,55,1.0,5.0,91,0.00,,OVC005,0.00,VWS V12.07,2013-02-22 06:16:00,
2013-02-22 00:17:00,18.3,16.1,30.15,SE,131,3.0,5.0,91,0.00,,OVC005,0.00,VWS V12.07,2013-02-22 06:17:00,
2013-02-22 00:19:00,18.3,16.1,30.15,ENE,75,2.0,4.0,91,0.00,,OVC005,0.00,VWS V12.07,2013-02-22 06:19:00,
2013-02-22 00:20:00,18.3,16.1,30.15,ENE,66,7.0,7.0,91,0.00,,OVC005,0.00,VWS V12.07,2013-02-22 06:20:00,
2013-02-22 00:21:00,18.3,16.1,30.15,ESE,113,2.0,7.0,91,0.00,,OVC005,0.00,VWS V12.07,2013-02-22 06:21:00,
2013-02-22 00:22:00,18.3,16.1,30.15,East,100,7.0,7.0,91,0.00,,OVC005,0.00,VWS V12.07,2013-02-22 06:22:00,
2013-02-22 00:24:00,18.3,16.1,30.15,ENE,63,3.0,7.0,91,0.00,,OVC005,0.00,VWS V12.07,2013-02-22 06:24:00,
2013-02-22 00:25:00,18.3,16.1,30.15,East,86,0.0,7.0,91,0.00,,OVC005,0.00,VWS V12.07,2013-02-22 06:25:00,
2013-02-22 00:26:00,18.3,16.1,30.15,ENE,58,2.0,7.0,91,0.00,,OVC005,0.00,VWS V12.07,2013-02-22 06:26:00,
2013-02-22 00:27:00,18.3,16.1,30.15,NNE,30,2.0,7.0,91,0.00,,OVC005,0.00,VWS V12.07,2013-02-22 06:27:00,
2013-02-22 00:29:00,18.3,16.1,30.15,North,3,0.0,6.0,91,0.00,,OVC005,0.00,VWS V12.07,2013-02-22 06:29:00,
2013-02-22 00:30:00,18.3,16.1,30.14,East,98,1.0,6.0,91,0.00,,OVC005,0.00,VWS V12.07,2013-02-22 06:30:00,
2013-02-22 00:32:00,18.3,16.1,30.14,ENE,68,1.0,7.0,91,0.00,,OVC005,0.00,VWS V12.07,2013-02-22 06:32:00,
2013-02-22 00:35:00,18.3,16.1,30.14,NE,50,0.0,7.0,91,0.00,,OVC007,0.00,VWS V12.07,2013-02-22 06:35:00,
2013-02-22 00:37:00,18.3,16.1,30.14,ENE,72,1.0,7.0,91,0.00,,OVC007,0.00,VWS V12.07,2013-02-22 06:37:00,
2013-02-22 00:38:00,18.3,16.1,30.14,ESE,111,3.0,7.0,91,0.00,,OVC007,0.00,VWS V12.07,2013-02-22 06:38:00,
2013-02-22 00:40:00,18.1,15.9,30.14,ENE,67,0.0,6.0,91,0.00,,OVC007,0.00,VWS V12.07,2013-02-22 06:40:00,
2013-02-22 00:41:00,18.1,15.9,30.14,ESE,113,4.0,10.0,91,0.00,,OVC007,0.00,VWS V12.07,2013-02-22 06:41:00,
2013-02-22 00:42:00,18.1,15.9,30.14,NNW,333,3.0,10.0,91,0.00,,OVC007,0.00,VWS V12.07,2013-02-22 06:42:00,
2013-02-22 00:43:00,18.1,15.9,30.14,ENE,70,2.0,10.0,91,0.00,,OVC007,0.00,VWS V12.07,2013-02-22 06:43:00,
2013-02-22 00:45:00,18.1,15.7,30.14,ENE,68,10.0,10.0,90,0.00,,OVC007,0.00,VWS V12.07,2013-02-22 06:45:00,
2013-02-22 00:46:00,18.1,15.7,30.14,East,88,6.0,10.0,90,0.00,,OVC007,0.00,VWS V12.07,2013-02-22 06:46:00,
2013-02-22 00:47:00,18.1,15.7,30.14,East,98,4.0,10.0,90,0.00,,OVC007,0.00,VWS V12.07,2013-02-22 06:47:00,
2013-02-22 00:48:00,18.1,15.7,30.14,East,86,5.0,10.0,90,0.00,,OVC005,0.00,VWS V12.07,2013-02-22 06:48:00,
2013-02-22 00:50:00,18.1,15.7,30.14,East,86,2.0,7.0,90,0.00,,OVC007,0.00,VWS V12.07,2013-02-22 06:50:00,
2013-02-22 00:51:00,18.1,15.7,30.14,East,79,3.0,7.0,90,0.00,,OVC007,0.00,VWS V12.07,2013-02-22 06:51:00,
2013-02-22 00:53:00,18.1,15.7,30.14,ESE,109,1.0,7.0,90,0.00,,OVC007,0.00,VWS V12.07,2013-02-22 06:53:00,
2013-02-22 00:55:00,18.0,15.6,30.14,East,89,0.0,7.0,90,0.00,,OVC007,0.00,VWS V12.07,2013-02-22 06:55:00,
2013-02-22 00:57:00,18.0,15.3,30.14,East,85,0.0,7.0,89,0.00,,OVC007,0.00,VWS V12.07,2013-02-22 06:57:00,
2013-02-22 00:58:00,18.0,15.3,30.14,ENE,68,2.0,7.0,89,0.00,,OVC007,0.00,VWS V12.07,2013-02-22 06:58:00,
2013-02-22 01:00:00,18.0,15.3,30.13,North,357,1.0,5.0,89,0.00,,OVC007,0.00,VWS V12.07,2013-02-22 07:00:00,
2013-02-22 01:02:00,18.0,15.3,30.13,NE,51,4.0,7.0,89,0.00,,OVC007,0.00,VWS V12.07,2013-02-22 07:02:00,
2013-02-22 01:03:00,18.0,15.3,30.13,SSE,168,4.0,7.0,89,0.00,,OVC007,0.00,VWS V12.07,2013-02-22 07:03:00,
2013-02-22 01:04:00,18.0,15.3,30.13,South,179,1.0,7.0,89,0.00,,OVC007,0.00,VWS V12.07,2013-02-22 07:04:00,
2013-02-22 01:05:00,18.0,15.3,30.13,NE,39,4.0,7.0,89,0.00,,OVC007,0.00,VWS V12.07,2013-02-22 07:05:00,
2013-02-22 01:07:00,18.0,15.3,30.13,NE,37,3.0,7.0,89,0.00,,OVC007,0.00,VWS V12.07,2013-02-22 07:07:00,
2013-02-22 01:08:00,18.0,15.3,30.13,NE,39,4.0,7.0,89,0.00,,OVC007,0.00,VWS V12.07,2013-02-22 07:08:00,
2013-02-22 01:09:00,18.0,15.3,30.13,East,94,3.0,6.0,89,0.00,,OVC007,0.00,VWS V12.07,2013-02-22 07:09:00,
2013-02-22 01:10:00,18.0,15.3,30.13,East,79,0.0,6.0,89,0.00,,OVC007,0.00,VWS V12.07,2013-02-22 07:10:00,
2013-02-22 01:12:00,18.0,15.3,30.13,SSE,154,2.0,6.0,89,0.00,,OVC007,0.00,VWS V12.07,2013-02-22 07:12:00,
2013-02-22 01:13:00,18.0,15.3,30.13,SE,129,3.0,6.0,89,0.00,,OVC007,0.00,VWS V12.07,2013-02-22 07:13:00,
2013-02-22 01:14:00,18.0,15.3,30.13,SE,130,1.0,6.0,89,0.00,,OVC007,0.00,VWS V12.07,2013-02-22 07:14:00,
2013-02-22 01:15:00,17.8,15.1,30.13,East,83,2.0,6.0,89,0.00,,OVC007,0.00,VWS V12.07,2013-02-22 07:15:00,
2013-02-22 01:17:00,17.8,15.1,30.13,East,84,2.0,6.0,89,0.00,,OVC007,0.00,VWS V12.07,2013-02-22 07:17:00,
2013-02-22 01:18:00,17.8,15.1,30.13,East,85,0.0,3.0,89,0.00,,OVC007,0.00,VWS V12.07,2013-02-22 07:18:00,
2013-02-22 01:19:00,17.8,15.1,30.13,South,184,4.0,4.0,89,0.00,,OVC007,0.00,VWS V12.07,2013-02-22 07:19:00,
2013-02-22 01:21:00,17.8,15.1,30.13,East,81,1.0,5.0,89,0.00,,OVC007,0.00,VWS V12.07,2013-02-22 07:21:00,
2013-02-22 01:23:00,17.8,15.1,30.13,NE,34,1.0,5.0,89,0.00,,OVC007,0.00,VWS V12.07,2013-02-22 07:23:00,
2013-02-22 01:24:00,17.8,15.1,30.13,ENE,75,2.0,5.0,89,0.00,,OVC007,0.00,VWS V12.07,2013-02-22 07:24:00,
2013-02-22 01:26:00,17.8,15.1,30.13,NE,40,2.0,5.0,89,0.00,,OVC007,0.00,VWS V12.07,2013-02-22 07:26:00,
2013-02-22 01:29:00,17.8,15.1,30.13,East,82,1.0,3.0,89,0.00,,OVC007,0.00,VWS V12.07,2013-02-22 07:29:00,
2013-02-22 01:30:00,17.8,15.1,30.13,NNE,23,1.0,3.0,89,0.00,,OVC007,0.00,VWS V12.07,2013-02-22 07:30:00,
2013-02-22 01:31:00,17.8,15.1,30.13,ENE,77,1.0,3.0,89,0.00,,OVC007,0.00,VWS V12.07,2013-02-22 07:31:00,
2013-02-22 01:34:00,17.8,15.1,30.13,ENE,75,1.0,4.0,89,0.00,,OVC007,0.00,VWS V12.07,2013-02-22 07:34:00,
2013-02-22 01:35:00,17.8,15.1,30.13,ENE,75,0.0,4.0,89,0.00,,OVC007,0.00,VWS V12.07,2013-02-22 07:35:00,
2013-02-22 01:37:00,17.8,15.1,30.13,NE,39,1.0,5.0,89,0.00,,OVC007,0.00,VWS V12.07,2013-02-22 07:37:00,
2013-02-22 01:39:00,17.8,15.1,30.13,SE,139,1.0,5.0,89,0.00,,OVC007,0.00,VWS V12.07,2013-02-22 07:39:00,
2013-02-22 01:40:00,17.8,15.1,30.13,SE,143,1.0,5.0,89,0.00,,OVC007,0.00,VWS V12.07,2013-02-22 07:40:00,
2013-02-22 01:42:00,17.8,15.1,30.13,East,97,1.0,5.0,89,0.00,,OVC007,0.00,VWS V12.07,2013-02-22 07:42:00,
2013-02-22 01:44:00,17.7,15.0,30.13,NNE,25,0.0,5.0,89,0.00,,OVC007,0.00,VWS V12.07,2013-02-22 07:44:00,
2013-02-22 01:45:00,17.7,15.0,30.13,SE,134,2.0,5.0,89,0.00,,OVC007,0.00,VWS V12.07,2013-02-22 07:45:00,
2013-02-22 01:47:00,17.7,15.0,30.13,East,84,1.0,5.0,89,0.00,,OVC007,0.00,VWS V12.07,2013-02-22 07:47:00,
2013-02-22 01:49:00,17.7,15.0,30.13,East,96,1.0,4.0,89,0.00,,OVC007,0.00,VWS V12.07,2013-02-22 07:49:00,
2013-02-22 01:50:00,17.7,15.0,30.13,NE,50,1.0,4.0,89,0.00,,OVC007,0.00,VWS V12.07,2013-02-22 07:50:00,
2013-02-22 01:52:00,17.7,15.0,30.13,NE,41,1.0,5.0,89,0.00,,OVC007,0.00,VWS V12.07,2013-02-22 07:52:00,
2013-02-22 01:55:00,17.7,15.0,30.13,ESE,115,0.0,5.0,89,0.00,,OVC007,0.00,VWS V12.07,2013-02-22 07:55:00,
2013-02-22 01:57:00,17.5,14.8,30.13,NE,56,0.0,5.0,89,0.00,,OVC007,0.00,VWS V12.07,2013-02-22 07:57:00,
2013-02-22 02:00:00,17.5,14.8,30.12,East,91,5.0,5.0,89,0.00,,OVC007,0.00,VWS V12.07,2013-02-22 08:00:00,
2013-02-22 02:02:00,17.5,14.8,30.12,ENE,75,1.0,5.0,89,0.00,,OVC007,0.00,VWS V12.07,2013-02-22 08:02:00,
2013-02-22 02:05:00,17.5,14.8,30.12,ENE,76,2.0,6.0,89,0.00,,OVC007,0.00,VWS V12.07,2013-02-22 08:05:00,
2013-02-22 02:07:00,17.3,14.6,30.12,East,84,2.0,6.0,89,0.00,,OVC007,0.00,VWS V12.07,2013-02-22 08:07:00,
2013-02-22 02:10:00,17.3,14.6,30.12,NE,34,1.0,4.0,89,0.00,,OVC007,0.00,VWS V12.07,2013-02-22 08:10:00,
2013-02-22 02:11:00,17.3,14.6,30.12,NNE,32,2.0,4.0,89,0.00,,OVC007,0.00,VWS V12.07,2013-02-22 08:11:00,
2013-02-22 02:13:00,17.3,14.6,30.12,NE,43,0.0,4.0,89,0.00,,OVC007,0.00,VWS V12.07,2013-02-22 08:13:00,
2013-02-22 02:15:00,17.3,14.6,30.11,ENE,75,1.0,4.0,89,0.00,,OVC007,0.00,VWS V12.07,2013-02-22 08:15:00,
2013-02-22 02:16:00,17.3,14.6,30.11,ENE,75,1.0,4.0,89,0.00,,OVC007,0.00,VWS V12.07,2013-02-22 08:16:00,
2013-02-22 02:18:00,17.2,14.5,30.11,ENE,75,0.0,0.0,89,0.00,,OVC007,0.00,VWS V12.07,2013-02-22 08:18:00,
2013-02-22 02:20:00,17.2,14.5,30.11,East,91,2.0,2.0,89,0.00,,OVC007,0.00,VWS V12.07,2013-02-22 08:20:00,
2013-02-22 02:21:00,17.2,14.5,30.11,East,91,2.0,2.0,89,0.00,,OVC007,0.00,VWS V12.07,2013-02-22 08:21:00,
2013-02-22 02:23:00,17.2,14.5,30.11,East,91,0.0,2.0,89,0.00,,OVC007,0.00,VWS V12.07,2013-02-22 08:23:00,
2013-02-22 02:25:00,17.2,14.5,30.11,NE,37,1.0,3.0,89,0.00,,OVC007,0.00,VWS V12.07,2013-02-22 08:25:00,
2013-02-22 02:26:00,17.2,14.5,30.11,NE,56,2.0,4.0,89,0.00,,OVC007,0.00,VWS V12.07,2013-02-22 08:26:00,
2013-02-22 02:27:00,17.2,14.5,30.11,NE,53,1.0,4.0,89,0.00,,OVC007,0.00,VWS V12.07,2013-02-22 08:27:00,
2013-02-22 02:28:00,17.2,14.5,30.11,ENE,65,3.0,4.0,89,0.00,,OVC007,0.00,VWS V12.07,2013-02-22 08:28:00,
2013-02-22 02:30:00,17.2,14.5,30.11,NE,51,0.0,4.0,89,0.00,,OVC007,0.00,VWS V12.07,2013-02-22 08:30:00,
2013-02-22 02:31:00,17.2,14.5,30.11,NE,51,0.0,4.0,89,0.00,,OVC007,0.00,VWS V12.07,2013-02-22 08:31:00,
2013-02-22 02:32:00,17.2,14.5,30.11,ENE,58,2.0,4.0,89,0.00,,OVC007,0.00,VWS V12.07,2013-02-22 08:32:00,
2013-02-22 02:34:00,17.0,14.3,30.11,East,96,0.0,0.0,89,0.00,,OVC007,0.00,VWS V12.07,2013-02-22 08:34:00,
2013-02-22 02:36:00,17.0,14.3,30.11,NNE,30,1.0,4.0,89,0.00,,OVC007,0.00,VWS V12.07,2013-02-22 08:36:00,
2013-02-22 02:38:00,17.0,14.3,30.11,East,86,1.0,4.0,89,0.00,,OVC007,0.00,VWS V12.07,2013-02-22 08:38:00,
2013-02-22 02:40:00,17.0,14.3,30.11,NNE,30,1.0,3.0,89,0.00,,OVC007,0.00,VWS V12.07,2013-02-22 08:40:00,
2013-02-22 02:41:00,17.0,14.3,30.11,NNE,23,1.0,3.0,89,0.00,,OVC007,0.00,VWS V12.07,2013-02-22 08:41:00,
2013-02-22 02:42:00,17.0,14.3,30.11,North,4,4.0,6.0,89,0.00,,OVC007,0.00,VWS V12.07,2013-02-22 08:42:00,
2013-02-22 02:43:00,17.0,14.3,30.11,NE,49,3.0,7.0,89,0.00,,OVC007,0.00,VWS V12.07,2013-02-22 08:43:00,
2013-02-22 02:45:00,16.9,14.2,30.10,ENE,67,3.0,7.0,89,0.00,,OVC007,0.00,VWS V12.07,2013-02-22 08:45:00,
2013-02-22 02:47:00,16.9,14.2,30.10,ENE,62,3.0,7.0,89,0.00,,OVC007,0.00,VWS V12.07,2013-02-22 08:47:00,
2013-02-22 02:48:00,16.9,14.2,30.10,NNE,18,2.0,6.0,89,0.00,,OVC007,0.00,VWS V12.07,2013-02-22 08:48:00,
2013-02-22 02:50:00,16.9,14.2,30.10,NNE,31,2.0,9.0,89,0.00,,OVC007,0.00,VWS V12.07,2013-02-22 08:50:00,
2013-02-22 02:52:00,16.9,14.2,30.10,East,88,0.0,9.0,89,0.00,,OVC007,0.00,VWS V12.07,2013-02-22 08:52:00,
2013-02-22 02:53:00,16.9,14.2,30.10,East,88,0.0,9.0,89,0.00,,OVC007,0.00,VWS V12.07,2013-02-22 08:53:00,
2013-02-22 02:55:00,16.9,14.2,30.10,ENE,63,1.0,9.0,89,0.00,,OVC007,0.00,VWS V12.07,2013-02-22 08:55:00,
2013-02-22 02:57:00,16.9,14.2,30.10,ESE,110,0.0,9.0,89,0.00,,OVC007,0.00,VWS V12.07,2013-02-22 08:57:00,
2013-02-22 02:58:00,16.9,14.2,30.10,East,99,1.0,9.0,89,0.00,,OVC007,0.00,VWS V12.07,2013-02-22 08:58:00,
2013-02-22 03:00:00,16.9,14.2,30.09,ESE,112,0.0,4.0,89,0.00,,OVC007,0.00,VWS V12.07,2013-02-22 09:00:00,
2013-02-22 03:02:00,16.9,14.2,30.09,ENE,59,3.0,6.0,89,0.00,,OVC007,0.00,VWS V12.07,2013-02-22 09:02:00,
2013-02-22 03:03:00,16.9,14.2,30.09,North,8,5.0,6.0,89,0.00,,OVC007,0.00,VWS V12.07,2013-02-22 09:03:00,
2013-02-22 03:04:00,16.9,14.2,30.09,ENE,67,4.0,6.0,89,0.00,,OVC007,0.00,VWS V12.07,2013-02-22 09:04:00,
2013-02-22 03:05:00,16.9,14.2,30.09,ESE,110,1.0,6.0,89,0.00,,OVC007,0.00,VWS V12.07,2013-02-22 09:05:00,
2013-02-22 03:07:00,16.9,14.2,30.09,East,94,0.0,6.0,89,0.00,,OVC007,0.00,VWS V12.07,2013-02-22 09:07:00,
2013-02-22 03:09:00,16.9,14.2,30.09,ESE,111,1.0,4.0,89,0.00,,OVC007,0.00,VWS V12.07,2013-02-22 09:09:00,
2013-02-22 03:10:00,16.9,14.5,30.09,ENE,59,3.0,4.0,90,0.00,,OVC007,0.00,VWS V12.07,2013-02-22 09:10:00,
2013-02-22 03:12:00,16.9,14.5,30.09,ENE,59,3.0,4.0,90,0.00,,OVC007,0.00,VWS V12.07,2013-02-22 09:12:00,
2013-02-22 03:14:00,16.9,14.5,30.09,ENE,59,3.0,4.0,90,0.00,,OVC007,0.00,VWS V12.07,2013-02-22 09:14:00,
2013-02-22 03:15:00,16.9,14.5,30.09,ENE,59,3.0,4.0,90,0.00,,OVC007,0.00,VWS V12.07,2013-02-22 09:15:00,
2013-02-22 03:17:00,16.9,14.5,30.08,ENE,59,3.0,4.0,90,0.00,,OVC007,0.00,VWS V12.07,2013-02-22 09:17:00,
2013-02-22 03:20:00,16.9,14.5,30.08,ENE,59,3.0,3.0,90,0.00,,OVC007,0.00,VWS V12.07,2013-02-22 09:20:00,
2013-02-22 03:21:00,16.9,14.5,30.08,ENE,59,3.0,3.0,90,0.00,,OVC007,0.00,VWS V12.07,2013-02-22 09:21:00,
2013-02-22 03:22:00,16.9,14.5,30.08,ENE,59,3.0,3.0,90,0.00,,OVC007,0.00,VWS V12.07,2013-02-22 09:22:00,
2013-02-22 03:25:00,16.9,14.5,30.08,ENE,59,3.0,3.0,90,0.00,,OVC007,0.00,VWS V12.07,2013-02-22 09:25:00,
2013-02-22 03:26:00,16.9,14.5,30.08,ENE,59,3.0,3.0,90,0.00,,OVC007,0.00,VWS V12.07,2013-02-22 09:26:00,
2013-02-22 03:28:00,16.9,14.5,30.08,ENE,59,3.0,3.0,90,0.00,,OVC007,0.00,VWS V12.07,2013-02-22 09:28:00,
2013-02-22 03:30:00,16.9,14.5,30.04,ENE,59,3.0,3.0,90,0.00,,OVC007,0.00,VWS V12.07,2013-02-22 09:30:00,
2013-02-22 03:31:00,16.9,14.5,30.04,ENE,59,3.0,3.0,90,0.00,,OVC007,0.00,VWS V12.07,2013-02-22 09:31:00,
2013-02-22 03:33:00,16.9,14.5,30.04,ENE,59,3.0,3.0,90,0.00,,OVC007,0.00,VWS V12.07,2013-02-22 09:33:00,
2013-02-22 03:35:00,16.9,14.5,30.04,ENE,59,3.0,3.0,90,0.00,,OVC007,0.00,VWS V12.07,2013-02-22 09:35:00,
2013-02-22 03:36:00,16.9,14.5,30.04,ENE,59,3.0,3.0,90,0.00,,OVC007,0.00,VWS V12.07,2013-02-22 09:36:00,
2013-02-22 03:38:00,16.9,14.5,30.04,ENE,59,3.0,3.0,90,0.00,,OVC007,0.00,VWS V12.07,2013-02-22 09:38:00,
2013-02-22 03:40:00,16.9,14.5,30.04,ENE,59,3.0,3.0,90,0.00,,OVC007,0.00,VWS V12.07,2013-02-22 09:40:00,
2013-02-22 03:41:00,16.9,14.5,30.04,ENE,59,3.0,3.0,90,0.00,,OVC007,0.00,VWS V12.07,2013-02-22 09:41:00,
2013-02-22 03:43:00,16.9,14.5,30.04,ENE,59,3.0,3.0,90,0.00,,OVC007,0.00,VWS V12.07,2013-02-22 09:43:00,
2013-02-22 03:45:00,16.9,14.5,30.02,ENE,59,3.0,3.0,90,0.00,,OVC007,0.00,VWS V12.07,2013-02-22 09:45:00,
2013-02-22 03:46:00,16.9,14.5,30.02,ENE,59,3.0,3.0,90,0.00,,OVC007,0.00,VWS V12.07,2013-02-22 09:46:00,
2013-02-22 03:48:00,16.9,14.5,30.02,ENE,59,3.0,3.0,90,0.00,,OVC007,0.00,VWS V12.07,2013-02-22 09:48:00,
2013-02-22 03:50:00,16.9,14.5,30.02,ENE,59,3.0,3.0,90,0.00,,OVC007,0.00,VWS V12.07,2013-02-22 09:50:00,
2013-02-22 03:51:00,16.9,14.5,30.02,ENE,59,3.0,3.0,90,0.00,,OVC007,0.00,VWS V12.07,2013-02-22 09:51:00,
2013-02-22 03:52:00,16.9,14.5,30.02,ENE,59,3.0,3.0,90,0.00,,OVC007,0.00,VWS V12.07,2013-02-22 09:52:00,
2013-02-22 03:54:00,16.9,14.5,30.02,ENE,59,3.0,3.0,90,0.00,,OVC007,0.00,VWS V12.07,2013-02-22 09:54:00,
2013-02-22 03:55:00,16.9,14.5,30.02,ENE,59,3.0,3.0,90,0.00,,OVC007,0.00,VWS V12.07,2013-02-22 09:55:00,
2013-02-22 03:56:00,16.9,14.5,30.02,ENE,59,3.0,3.0,90,0.00,,OVC007,0.00,VWS V12.07,2013-02-22 09:56:00,
2013-02-22 03:57:00,16.9,14.5,30.02,ENE,59,3.0,3.0,90,0.00,,OVC007,0.00,VWS V12.07,2013-02-22 09:57:00,
2013-02-22 03:59:00,16.9,14.5,30.02,ENE,59,3.0,3.0,90,0.00,,OVC007,0.00,VWS V12.07,2013-02-22 09:59:00,
2013-02-22 04:00:00,16.9,14.5,30.02,ENE,59,3.0,3.0,90,0.00,,OVC007,0.00,VWS V12.07,2013-02-22 10:00:00,
2013-02-22 04:02:00,16.9,14.5,30.02,ENE,59,3.0,3.0,90,0.00,,OVC007,0.00,VWS V12.07,2013-02-22 10:02:00,
2013-02-22 04:04:00,16.9,14.5,30.02,ENE,59,3.0,3.0,90,0.00,,OVC007,0.00,VWS V12.07,2013-02-22 10:04:00,
2013-02-22 04:06:00,16.9,14.5,30.02,ENE,59,3.0,3.0,90,0.00,,OVC007,0.00,VWS V12.07,2013-02-22 10:06:00,
2013-02-22 04:07:00,16.9,14.5,30.02,ENE,59,3.0,3.0,90,0.00,,OVC007,0.00,VWS V12.07,2013-02-22 10:07:00,
2013-02-22 04:08:00,16.9,14.5,30.02,ENE,59,3.0,3.0,90,0.00,,OVC007,0.00,VWS V12.07,2013-02-22 10:08:00,
2013-02-22 04:09:00,16.9,14.5,30.02,ENE,59,3.0,3.0,90,0.00,,OVC007,0.00,VWS V12.07,2013-02-22 10:09:00,
2013-02-22 04:11:00,16.9,14.5,30.02,ENE,59,3.0,3.0,90,0.00,,OVC007,0.00,VWS V12.07,2013-02-22 10:11:00,
2013-02-22 04:13:00,16.9,14.5,30.02,ENE,59,3.0,3.0,90,0.00,,OVC007,0.00,VWS V12.07,2013-02-22 10:13:00,
2013-02-22 04:14:00,16.9,14.5,30.02,ENE,59,3.0,3.0,90,0.00,,OVC007,0.00,VWS V12.07,2013-02-22 10:14:00,
2013-02-22 04:17:00,16.9,14.5,30.01,ENE,59,3.0,3.0,90,0.00,,OVC007,0.00,VWS V12.07,2013-02-22 10:17:00,
2013-02-22 04:18:00,16.9,14.5,30.01,ENE,59,3.0,3.0,90,0.00,,OVC007,0.00,VWS V12.07,2013-02-22 10:18:00,
2013-02-22 04:19:00,16.9,14.5,30.01,ENE,59,3.0,3.0,90,0.00,,OVC007,0.00,VWS V12.07,2013-02-22 10:19:00,
2013-02-22 04:22:00,16.9,14.5,30.01,ENE,59,3.0,3.0,90,0.00,,OVC007,0.00,VWS V12.07,2013-02-22 10:22:00,
2013-02-22 04:23:00,16.9,14.5,30.01,ENE,59,3.0,3.0,90,0.00,,OVC007,0.00,VWS V12.07,2013-02-22 10:23:00,
2013-02-22 04:25:00,16.9,14.5,30.01,ENE,59,3.0,3.0,90,0.00,,OVC007,0.00,VWS V12.07,2013-02-22 10:25:00,
2013-02-22 04:27:00,16.9,14.5,30.01,ENE,59,3.0,3.0,90,0.00,,OVC007,0.00,VWS V12.07,2013-02-22 10:27:00,
2013-02-22 04:28:00,16.9,14.5,30.01,ENE,59,3.0,3.0,90,0.00,,OVC007,0.00,VWS V12.07,2013-02-22 10:28:00,
2013-02-22 04:29:00,16.9,14.5,30.01,ENE,59,3.0,3.0,90,0.00,,OVC007,0.00,VWS V12.07,2013-02-22 10:29:00,
2013-02-22 04:30:00,16.9,14.5,30.00,ENE,59,3.0,3.0,90,0.00,,OVC007,0.00,VWS V12.07,2013-02-22 10:30:00,
2013-02-22 04:33:00,16.9,14.5,30.00,ENE,59,3.0,3.0,90,0.00,,OVC007,0.00,VWS V12.07,2013-02-22 10:33:00,
2013-02-22 04:34:00,16.9,14.5,30.00,ENE,59,3.0,3.0,90,0.00,,OVC005,0.00,VWS V12.07,2013-02-22 10:34:00,
2013-02-22 04:35:00,16.9,14.5,30.00,ENE,59,3.0,3.0,90,0.00,,OVC005,0.00,VWS V12.07,2013-02-22 10:35:00,
2013-02-22 04:38:00,16.9,14.5,30.00,ENE,59,3.0,3.0,90,0.00,,OVC005,0.00,VWS V12.07,2013-02-22 10:38:00,
2013-02-22 04:39:00,16.9,14.5,30.00,ENE,59,3.0,3.0,90,0.00,,OVC005,0.00,VWS V12.07,2013-02-22 10:39:00,
2013-02-22 04:40:00,16.9,14.5,30.00,ENE,59,3.0,3.0,90,0.00,,OVC005,0.00,VWS V12.07,2013-02-22 10:40:00,
2013-02-22 04:43:00,16.9,14.5,30.00,ENE,59,3.0,3.0,90,0.00,,OVC005,0.00,VWS V12.07,2013-02-22 10:43:00,
2013-02-22 04:45:00,16.9,14.5,30.00,ENE,59,3.0,3.0,90,0.00,,OVC005,0.00,VWS V12.07,2013-02-22 10:45:00,
2013-02-22 04:48:00,16.9,14.5,30.00,ENE,59,3.0,3.0,90,0.00,,OVC005,0.00,VWS V12.07,2013-02-22 10:48:00,
2013-02-22 04:49:00,16.9,14.5,30.00,ENE,59,3.0,3.0,90,0.00,,OVC005,0.00,VWS V12.07,2013-02-22 10:49:00,
2013-02-22 04:50:00,16.9,14.5,30.00,ENE,59,3.0,3.0,90,0.00,,OVC005,0.00,VWS V12.07,2013-02-22 10:50:00,
2013-02-22 04:53:00,16.9,14.5,30.00,ENE,59,3.0,3.0,90,0.00,,OVC005,0.00,VWS V12.07,2013-02-22 10:53:00,
2013-02-22 04:54:00,16.9,14.5,30.00,ENE,59,3.0,3.0,90,0.00,,OVC005,0.00,VWS V12.07,2013-02-22 10:54:00,
2013-02-22 04:55:00,16.9,14.5,30.00,ENE,59,3.0,3.0,90,0.00,,OVC005,0.00,VWS V12.07,2013-02-22 10:55:00,
2013-02-22 04:56:00,16.9,14.5,30.00,ENE,59,3.0,3.0,90,0.00,,OVC005,0.00,VWS V12.07,2013-02-22 10:56:00,
2013-02-22 04:58:00,16.9,14.5,30.00,ENE,59,3.0,3.0,90,0.00,,OVC005,0.00,VWS V12.07,2013-02-22 10:58:00,
2013-02-22 04:59:00,16.9,14.5,30.00,ENE,59,3.0,3.0,90,0.00,,OVC005,0.00,VWS V12.07,2013-02-22 10:59:00,
2013-02-22 05:00:00,16.9,14.5,30.00,ENE,59,3.0,3.0,90,0.00,,OVC005,0.00,VWS V12.07,2013-02-22 11:00:00,
2013-02-22 05:01:00,16.9,14.5,30.00,ENE,59,3.0,3.0,90,0.00,,OVC005,0.00,VWS V12.07,2013-02-22 11:01:00,
2013-02-22 05:03:00,16.9,14.5,30.00,ENE,59,3.0,3.0,90,0.00,,OVC005,0.00,VWS V12.07,2013-02-22 11:03:00,
2013-02-22 05:04:00,16.9,14.5,30.00,ENE,59,3.0,3.0,90,0.00,,OVC005,0.00,VWS V12.07,2013-02-22 11:04:00,
2013-02-22 05:05:00,16.9,14.5,30.00,ENE,59,3.0,3.0,90,0.00,,OVC005,0.00,VWS V12.07,2013-02-22 11:05:00,
2013-02-22 05:06:00,16.9,14.5,30.00,ENE,59,3.0,3.0,90,0.00,,OVC005,0.00,VWS V12.07,2013-02-22 11:06:00,
2013-02-22 05:09:00,16.9,14.5,30.00,ENE,59,3.0,3.0,90,0.00,,OVC005,0.00,VWS V12.07,2013-02-22 11:09:00,
2013-02-22 05:11:00,16.9,14.5,30.00,ENE,59,3.0,3.0,90,0.00,,OVC005,0.00,VWS V12.07,2013-02-22 11:11:00,
2013-02-22 05:12:00,16.9,14.5,30.00,ENE,59,3.0,3.0,90,0.00,,OVC005,0.00,VWS V12.07,2013-02-22 11:12:00,
2013-02-22 05:14:00,16.9,14.5,30.00,ENE,59,3.0,3.0,90,0.00,,OVC005,0.00,VWS V12.07,2013-02-22 11:14:00,
2013-02-22 05:16:00,16.9,14.5,30.00,ENE,59,3.0,3.0,90,0.00,,OVC005,0.00,VWS V12.07,2013-02-22 11:16:00,
2013-02-22 05:17:00,16.9,14.5,30.00,ENE,59,3.0,3.0,90,0.00,,OVC005,0.00,VWS V12.07,2013-02-22 11:17:00,
2013-02-22 05:19:00,16.9,14.5,30.00,ENE,59,3.0,3.0,90,0.00,,OVC005,0.00,VWS V12.07,2013-02-22 11:19:00,
2013-02-22 05:20:00,16.9,14.5,30.00,ENE,59,3.0,3.0,90,0.00,,OVC005,0.00,VWS V12.07,2013-02-22 11:20:00,
2013-02-22 05:21:00,16.9,14.5,30.00,ENE,59,3.0,3.0,90,0.00,,OVC005,0.00,VWS V12.07,2013-02-22 11:21:00,
2013-02-22 05:22:00,16.9,14.5,30.00,ENE,59,3.0,3.0,90,0.00,,OVC005,0.00,VWS V12.07,2013-02-22 11:22:00,
2013-02-22 05:24:00,16.9,14.5,30.00,ENE,59,3.0,3.0,90,0.00,,OVC005,0.00,VWS V12.07,2013-02-22 11:24:00,
2013-02-22 05:25:00,16.9,14.5,30.00,ENE,59,3.0,3.0,90,0.00,,OVC005,0.00,VWS V12.07,2013-02-22 11:25:00,
2013-02-22 05:26:00,16.9,14.5,30.00,ENE,59,3.0,3.0,90,0.00,,OVC005,0.00,VWS V12.07,2013-02-22 11:26:00,
2013-02-22 05:27:00,16.9,14.5,30.00,ENE,59,3.0,3.0,90,0.00,,OVC005,0.00,VWS V12.07,2013-02-22 11:27:00,
2013-02-22 05:30:00,16.9,14.5,29.99,ENE,59,3.0,3.0,90,0.00,,OVC005,0.00,VWS V12.07,2013-02-22 11:30:00,
2013-02-22 05:31:00,16.9,14.5,29.99,ENE,59,3.0,3.0,90,0.00,,OVC005,0.00,VWS V12.07,2013-02-22 11:31:00,
2013-02-22 05:32:00,16.9,14.5,29.99,ENE,59,3.0,3.0,90,0.00,,OVC005,0.00,VWS V12.07,2013-02-22 11:32:00,
2013-02-22 05:35:00,16.9,14.5,29.99,ENE,59,3.0,3.0,90,0.00,,OVC005,0.00,VWS V12.07,2013-02-22 11:35:00,
2013-02-22 05:36:00,16.9,14.5,29.99,ENE,59,3.0,3.0,90,0.00,,OVC005,0.00,VWS V12.07,2013-02-22 11:36:00,
2013-02-22 05:37:00,16.9,14.5,29.99,ENE,59,3.0,3.0,90,0.00,,OVC005,0.00,VWS V12.07,2013-02-22 11:37:00,
2013-02-22 05:40:00,16.9,14.5,29.99,ENE,59,3.0,3.0,90,0.00,,OVC005,0.00,VWS V12.07,2013-02-22 11:40:00,
2013-02-22 05:42:00,16.9,14.5,29.99,ENE,59,3.0,3.0,90,0.00,,OVC005,0.00,VWS V12.07,2013-02-22 11:42:00,
2013-02-22 05:45:00,16.9,14.5,29.97,ENE,59,3.0,3.0,90,0.00,,OVC005,0.00,VWS V12.07,2013-02-22 11:45:00,
2013-02-22 05:46:00,16.9,14.5,29.97,ENE,59,3.0,3.0,90,0.00,,OVC005,0.00,VWS V12.07,2013-02-22 11:46:00,
2013-02-22 05:47:00,16.9,14.5,29.97,ENE,59,3.0,3.0,90,0.00,,OVC005,0.00,VWS V12.07,2013-02-22 11:47:00,
2013-02-22 05:51:00,16.9,14.5,29.97,ENE,59,3.0,3.0,90,0.00,,,0.00,VWS V12.07,2013-02-22 11:51:00,
2013-02-22 05:52:00,16.9,14.5,29.97,ENE,59,3.0,3.0,90,0.00,,,0.00,VWS V12.07,2013-02-22 11:52:00,
2013-02-22 05:56:00,16.9,14.5,29.97,ENE,59,3.0,3.0,90,0.00,,,0.00,VWS V12.07,2013-02-22 11:56:00,
2013-02-22 05:57:00,16.9,14.5,29.97,ENE,59,3.0,3.0,90,0.00,,,0.00,VWS V12.07,2013-02-22 11:57:00,
2013-02-22 06:01:00,16.9,14.5,29.98,ENE,59,3.0,3.0,90,0.00,,,0.00,VWS V12.07,2013-02-22 12:01:00,
2013-02-22 06:02:00,16.9,14.5,29.98,ENE,59,3.0,3.0,90,0.00,,,0.00,VWS V12.07,2013-02-22 12:02:00,
2013-02-22 06:03:00,16.9,14.5,29.98,ENE,59,3.0,3.0,90,0.00,,,0.00,VWS V12.07,2013-02-22 12:03:00,
2013-02-22 06:06:00,16.9,14.5,29.98,ENE,59,3.0,3.0,90,0.00,,,0.00,VWS V12.07,2013-02-22 12:06:00,
2013-02-22 06:07:00,16.9,14.5,29.98,ENE,59,3.0,3.0,90,0.00,,,0.00,VWS V12.07,2013-02-22 12:07:00,
2013-02-22 06:08:00,16.9,14.5,29.98,ENE,59,3.0,3.0,90,0.00,,,0.00,VWS V12.07,2013-02-22 12:08:00,
2013-02-22 06:11:00,16.9,14.5,29.98,ENE,59,3.0,3.0,90,0.00,,,0.00,VWS V12.07,2013-02-22 12:11:00,
2013-02-22 06:12:00,16.9,14.5,29.98,ENE,59,3.0,3.0,90,0.00,,,0.00,VWS V12.07,2013-02-22 12:12:00,
2013-02-22 06:13:00,16.9,14.5,29.98,ENE,59,3.0,3.0,90,0.00,,,0.00,VWS V12.07,2013-02-22 12:13:00,
2013-02-22 06:16:00,16.9,14.5,29.97,ENE,59,3.0,3.0,90,0.00,,,0.00,VWS V12.07,2013-02-22 12:16:00,
2013-02-22 06:17:00,16.9,14.5,29.97,ENE,59,3.0,3.0,90,0.00,,,0.00,VWS V12.07,2013-02-22 12:17:00,
2013-02-22 06:18:00,16.9,14.5,29.97,ENE,59,3.0,3.0,90,0.00,,,0.00,VWS V12.07,2013-02-22 12:18:00,
2013-02-22 06:21:00,16.9,14.5,29.97,ENE,59,3.0,3.0,90,0.00,,,0.00,VWS V12.07,2013-02-22 12:21:00,
2013-02-22 06:22:00,16.9,14.5,29.97,ENE,59,3.0,3.0,90,0.00,,,0.00,VWS V12.07,2013-02-22 12:22:00,
2013-02-22 06:23:00,16.9,14.5,29.97,ENE,59,3.0,3.0,90,0.00,,,0.00,VWS V12.07,2013-02-22 12:23:00,
2013-02-22 06:26:00,16.9,14.5,29.97,ENE,59,3.0,3.0,90,0.00,,,0.00,VWS V12.07,2013-02-22 12:26:00,
2013-02-22 06:27:00,16.9,14.5,29.97,ENE,59,3.0,3.0,90,0.00,,,0.00,VWS V12.07,2013-02-22 12:27:00,
2013-02-22 06:28:00,16.9,14.5,29.97,ENE,59,3.0,3.0,90,0.00,,,0.00,VWS V12.07,2013-02-22 12:28:00,
2013-02-22 06:29:00,16.9,14.5,29.97,ENE,59,3.0,3.0,90,0.00,,,0.00,VWS V12.07,2013-02-22 12:29:00,
2013-02-22 06:31:00,16.9,14.5,29.96,ENE,59,3.0,3.0,90,0.00,,,0.00,VWS V12.07,2013-02-22 12:31:00,
2013-02-22 06:32:00,16.9,14.5,29.96,ENE,59,3.0,3.0,90,0.00,,,0.00,VWS V12.07,2013-02-22 12:32:00,
2013-02-22 06:33:00,16.9,14.5,29.96,ENE,59,3.0,3.0,90,0.00,,,0.00,VWS V12.07,2013-02-22 12:33:00,
2013-02-22 06:34:00,16.9,14.5,29.96,ENE,59,3.0,3.0,90,0.00,,,0.00,VWS V12.07,2013-02-22 12:34:00,
2013-02-22 06:37:00,16.9,14.5,29.96,ENE,59,3.0,3.0,90,0.00,,,0.00,VWS V12.07,2013-02-22 12:37:00,
2013-02-22 06:38:00,16.9,14.5,29.96,ENE,59,3.0,3.0,90,0.00,,,0.00,VWS V12.07,2013-02-22 12:38:00,
2013-02-22 06:40:00,16.9,14.5,29.96,ENE,59,3.0,3.0,90,0.00,,,0.00,VWS V12.07,2013-02-22 12:40:00,
2013-02-22 06:42:00,16.9,14.5,29.96,ENE,59,3.0,3.0,90,0.00,,,0.00,VWS V12.07,2013-02-22 12:42:00,
2013-02-22 06:43:00,16.9,14.5,29.96,ENE,59,3.0,3.0,90,0.00,,,0.00,VWS V12.07,2013-02-22 12:43:00,
2013-02-22 06:45:00,16.9,14.5,29.95,ENE,59,3.0,3.0,90,0.00,,,0.00,VWS V12.07,2013-02-22 12:45:00,
2013-02-22 06:47:00,16.9,14.5,29.95,ENE,59,3.0,3.0,90,0.00,,,0.00,VWS V12.07,2013-02-22 12:47:00,
2013-02-22 06:48:00,16.9,14.5,29.95,ENE,59,3.0,3.0,90,0.00,,,0.00,VWS V12.07,2013-02-22 12:48:00,
2013-02-22 06:50:00,16.9,14.5,29.95,ENE,59,3.0,3.0,90,0.00,,,0.00,VWS V12.07,2013-02-22 12:50:00,
2013-02-22 06:52:00,16.9,14.5,29.95,ENE,59,3.0,3.0,90,0.00,,,0.00,VWS V12.07,2013-02-22 12:52:00,
2013-02-22 06:53:00,16.9,14.5,29.95,ENE,59,3.0,3.0,90,0.00,,,0.00,VWS V12.07,2013-02-22 12:53:00,
2013-02-22 06:55:00,16.9,14.5,29.95,ENE,59,3.0,3.0,90,0.00,,,0.00,VWS V12.07,2013-02-22 12:55:00,
2013-02-22 06:58:00,16.9,14.5,29.95,ENE,59,3.0,3.0,90,0.00,,,0.00,VWS V12.07,2013-02-22 12:58:00,
2013-02-22 07:00:00,16.9,14.5,29.95,ENE,59,3.0,3.0,90,0.00,,,0.00,VWS V12.07,2013-02-22 13:00:00,
2013-02-22 07:03:00,16.9,14.5,29.95,ENE,59,3.0,3.0,90,0.00,,,0.00,VWS V12.07,2013-02-22 13:03:00,
2013-02-22 07:05:00,16.9,14.5,29.95,ENE,59,3.0,3.0,90,0.00,,,0.00,VWS V12.07,2013-02-22 13:05:00,
2013-02-22 07:08:00,16.9,14.5,29.95,ENE,59,3.0,3.0,90,0.00,,,0.00,VWS V12.07,2013-02-22 13:08:00,
2013-02-22 07:11:00,16.9,14.5,29.95,ENE,59,3.0,3.0,90,0.00,,,0.00,VWS V12.07,2013-02-22 13:11:00,
2013-02-22 07:13:00,16.9,14.5,29.95,ENE,59,3.0,3.0,90,0.00,,,0.00,VWS V12.07,2013-02-22 13:13:00,
2013-02-22 07:14:00,16.9,14.5,29.95,ENE,59,3.0,3.0,90,0.00,,,0.00,VWS V12.07,2013-02-22 13:14:00,
2013-02-22 07:16:00,16.9,14.5,29.95,ENE,59,3.0,3.0,90,0.00,,,0.00,VWS V12.07,2013-02-22 13:16:00,
2013-02-22 07:18:00,16.9,14.5,29.95,ENE,59,3.0,3.0,90,0.00,,,0.00,VWS V12.07,2013-02-22 13:18:00,
2013-02-22 07:19:00,16.9,14.5,29.95,ENE,59,3.0,3.0,90,0.00,,,0.00,VWS V12.07,2013-02-22 13:19:00,
2013-02-22 07:22:00,16.9,14.5,29.95,ENE,59,3.0,3.0,90,0.00,,,0.00,VWS V12.07,2013-02-22 13:22:00,
2013-02-22 07:23:00,16.9,14.5,29.95,ENE,59,3.0,3.0,90,0.00,,,0.00,VWS V12.07,2013-02-22 13:23:00,
2013-02-22 07:24:00,16.9,14.5,29.95,ENE,59,3.0,3.0,90,0.00,,,0.00,VWS V12.07,2013-02-22 13:24:00,
2013-02-22 07:25:00,16.9,14.5,29.95,ENE,59,3.0,3.0,90,0.00,,,0.00,VWS V12.07,2013-02-22 13:25:00,
2013-02-22 07:27:00,16.9,14.5,29.95,ENE,59,3.0,3.0,90,0.00,,,0.00,VWS V12.07,2013-02-22 13:27:00,
2013-02-22 07:28:00,16.9,14.5,29.95,ENE,59,3.0,3.0,90,0.00,,,0.00,VWS V12.07,2013-02-22 13:28:00,
2013-02-22 07:29:00,16.9,14.5,29.95,ENE,59,3.0,3.0,90,0.00,,,0.00,VWS V12.07,2013-02-22 13:29:00,
2013-02-22 07:30:00,16.9,14.5,29.95,ENE,59,3.0,3.0,90,0.00,,,0.00,VWS V12.07,2013-02-22 13:30:00,
2013-02-22 07:33:00,16.9,14.5,29.95,ENE,59,3.0,3.0,90,0.00,,,0.00,VWS V12.07,2013-02-22 13:33:00,
2013-02-22 07:34:00,16.9,14.5,29.95,ENE,59,3.0,3.0,90,0.00,,,0.00,VWS V12.07,2013-02-22 13:34:00,
2013-02-22 07:36:00,16.9,14.5,29.95,ENE,59,3.0,3.0,90,0.00,,,0.00,VWS V12.07,2013-02-22 13:36:00,
2013-02-22 07:38:00,16.9,14.5,29.95,ENE,59,3.0,3.0,90,0.00,,,0.00,VWS V12.07,2013-02-22 13:38:00,
2013-02-22 07:39:00,16.9,14.5,29.95,ENE,59,3.0,3.0,90,0.00,,,0.00,VWS V12.07,2013-02-22 13:39:00,
2013-02-22 07:40:00,16.9,14.5,29.95,ENE,59,3.0,3.0,90,0.00,,,0.00,VWS V12.07,2013-02-22 13:40:00,
2013-02-22 07:41:00,16.9,14.5,29.95,ENE,59,3.0,3.0,90,0.00,,,0.00,VWS V12.07,2013-02-22 13:41:00,
2013-02-22 07:43:00,16.9,14.5,29.95,ENE,59,3.0,3.0,90,0.00,,,0.00,VWS V12.07,2013-02-22 13:43:00,
2013-02-22 07:44:00,16.9,14.5,29.95,ENE,59,3.0,3.0,90,0.00,,,0.00,VWS V12.07,2013-02-22 13:44:00,
2013-02-22 07:45:00,16.9,14.5,29.94,ENE,59,3.0,3.0,90,0.00,,,0.00,VWS V12.07,2013-02-22 13:45:00,
2013-02-22 07:46:00,16.9,14.5,29.94,ENE,59,3.0,3.0,90,0.00,,,0.00,VWS V12.07,2013-02-22 13:46:00,
2013-02-22 07:49:00,16.9,14.5,29.94,ENE,59,3.0,3.0,90,0.00,,,0.00,VWS V12.07,2013-02-22 13:49:00,
2013-02-22 07:50:00,16.9,14.5,29.94,ENE,59,3.0,3.0,90,0.00,,,0.00,VWS V12.07,2013-02-22 13:50:00,
2013-02-22 07:52:00,19.5,17.0,29.94,NE,51,4.0,4.0,90,0.00,,,0.00,VWS V12.07,2013-02-22 13:52:00,
2013-02-22 07:54:00,19.5,17.6,29.94,ESE,113,2.0,4.0,92,0.01,,,0.01,VWS V12.07,2013-02-22 13:54:00,
2013-02-22 07:55:00,19.5,17.6,29.94,ENE,64,1.0,4.0,92,0.01,,,0.01,VWS V12.07,2013-02-22 13:55:00,
2013-02-22 07:57:00,19.5,17.6,29.94,NNE,15,4.0,7.0,92,0.01,,,0.01,VWS V12.07,2013-02-22 13:57:00,
2013-02-22 07:59:00,19.7,17.8,29.94,NNE,25,3.0,7.0,92,0.01,,,0.01,VWS V12.07,2013-02-22 13:59:00,
2013-02-22 08:00:00,19.7,17.8,29.94,NNE,12,0.0,7.0,92,0.01,,,0.01,VWS V12.07,2013-02-22 14:00:00,
2013-02-22 08:01:00,19.7,17.8,29.94,ENE,78,1.0,7.0,92,0.01,,,0.01,VWS V12.07,2013-02-22 14:01:00,
2013-02-22 08:02:00,19.7,17.8,29.94,ENE,64,0.0,7.0,92,0.01,,,0.01,VWS V12.07,2013-02-22 14:02:00,
2013-02-22 08:04:00,19.7,17.8,29.94,NNE,23,0.0,7.0,92,0.01,,,0.01,VWS V12.07,2013-02-22 14:04:00,
2013-02-22 08:05:00,19.7,17.8,29.94,NE,53,4.0,7.0,92,0.01,,,0.01,VWS V12.07,2013-02-22 14:05:00,
2013-02-22 08:06:00,19.7,18.0,29.94,East,96,1.0,7.0,93,0.01,,,0.01,VWS V12.07,2013-02-22 14:06:00,
2013-02-22 08:08:00,19.7,18.0,29.94,NE,50,2.0,7.0,93,0.01,,,0.01,VWS V12.07,2013-02-22 14:08:00,
2013-02-22 08:09:00,19.9,18.2,29.94,NNE,30,2.0,5.0,93,0.01,,,0.01,VWS V12.07,2013-02-22 14:09:00,
2013-02-22 08:10:00,19.9,18.2,29.94,NE,36,2.0,7.0,93,0.01,,,0.01,VWS V12.07,2013-02-22 14:10:00,
2013-02-22 08:11:00,19.9,18.2,29.94,East,97,0.0,7.0,93,0.01,,,0.01,VWS V12.07,2013-02-22 14:11:00,
2013-02-22 08:13:00,19.9,18.2,29.94,NNE,25,0.0,7.0,93,0.01,,,0.01,VWS V12.07,2013-02-22 14:13:00,
2013-02-22 08:14:00,19.9,18.2,29.94,NE,46,1.0,7.0,93,0.01,,,0.01,VWS V12.07,2013-02-22 14:14:00,
2013-02-22 08:15:00,19.9,18.2,29.94,East,86,1.0,7.0,93,0.01,,,0.01,VWS V12.07,2013-02-22 14:15:00,
2013-02-22 08:16:00,19.9,18.2,29.94,NE,37,0.0,7.0,93,0.01,,,0.01,VWS V12.07,2013-02-22 14:16:00,
2013-02-22 08:19:00,19.9,18.2,29.94,ENE,70,1.0,5.0,93,0.01,,,0.01,VWS V12.07,2013-02-22 14:19:00,
2013-02-22 08:20:00,20.0,18.3,29.94,ENE,70,0.0,5.0,93,0.01,,,0.01,VWS V12.07,2013-02-22 14:20:00,
2013-02-22 08:21:00,20.0,18.3,29.94,ENE,60,1.0,5.0,93,0.01,,,0.01,VWS V12.07,2013-02-22 14:21:00,
2013-02-22 08:24:00,20.0,18.3,29.94,East,96,4.0,5.0,93,0.02,,,0.02,VWS V12.07,2013-02-22 14:24:00,
2013-02-22 08:25:00,20.0,18.3,29.94,East,93,2.0,5.0,93,0.02,,,0.02,VWS V12.07,2013-02-22 14:25:00,
2013-02-22 08:26:00,20.0,18.3,29.94,NNE,25,2.0,5.0,93,0.02,,,0.02,VWS V12.07,2013-02-22 14:26:00,
2013-02-22 08:30:00,20.2,18.5,29.94,NNE,23,0.0,4.0,93,0.02,,,0.02,VWS V12.07,2013-02-22 14:30:00,
2013-02-22 08:31:00,20.2,18.5,29.94,NE,42,4.0,4.0,93,0.02,,,0.02,VWS V12.07,2013-02-22 14:31:00,
2013-02-22 08:35:00,20.2,18.5,29.94,North,0,3.0,4.0,93,0.02,,,0.02,VWS V12.07,2013-02-22 14:35:00,
2013-02-22 08:36:00,20.2,18.5,29.94,NE,37,2.0,4.0,93,0.02,,,0.02,VWS V12.07,2013-02-22 14:36:00,
2013-02-22 08:37:00,20.2,18.5,29.94,NNE,13,3.0,4.0,93,0.02,,,0.02,VWS V12.07,2013-02-22 14:37:00,
2013-02-22 08:40:00,20.2,18.5,29.94,North,10,3.0,6.0,93,0.03,,,0.03,VWS V12.07,2013-02-22 14:40:00,
2013-02-22 08:41:00,20.2,18.5,29.94,ENE,58,3.0,6.0,93,0.03,,,0.03,VWS V12.07,2013-02-22 14:41:00,
2013-02-22 08:42:00,20.2,18.5,29.94,NE,51,1.0,6.0,93,0.03,,,0.03,VWS V12.07,2013-02-22 14:42:00,
2013-02-22 08:45:00,20.3,18.6,29.94,East,92,0.0,9.0,93,0.03,,,0.03,VWS V12.07,2013-02-22 14:45:00,
2013-02-22 08:46:00,20.3,18.6,29.94,NNE,30,3.0,9.0,93,0.03,,,0.03,VWS V12.07,2013-02-22 14:46:00,
2013-02-22 08:48:00,20.3,18.6,29.94,NE,46,1.0,1.0,93,0.03,,,0.03,VWS V12.07,2013-02-22 14:48:00,
2013-02-22 08:51:00,20.3,18.6,29.94,NE,47,0.0,4.0,93,0.03,,,0.03,VWS V12.07,2013-02-22 14:51:00,
2013-02-22 08:53:00,20.5,18.8,29.94,NE,42,2.0,4.0,93,0.03,,,0.03,VWS V12.07,2013-02-22 14:53:00,
2013-02-22 08:56:00,20.3,18.6,29.94,NE,46,2.0,6.0,93,0.04,,,0.04,VWS V12.07,2013-02-22 14:56:00,
2013-02-22 08:57:00,20.3,18.4,29.94,East,91,5.0,6.0,92,0.03,,,0.04,VWS V12.07,2013-02-22 14:57:00,
2013-02-22 08:59:00,20.5,18.5,29.94,East,84,1.0,5.0,92,0.03,,,0.04,VWS V12.07,2013-02-22 14:59:00,
2013-02-22 09:01:00,20.5,18.5,29.94,East,86,0.0,5.0,92,0.03,,,0.04,VWS V12.07,2013-02-22 15:01:00,
2013-02-22 09:02:00,20.5,18.5,29.94,ENE,62,0.0,5.0,92,0.03,,,0.04,VWS V12.07,2013-02-22 15:02:00,
2013-02-22 09:05:00,20.5,18.5,29.94,NE,56,2.0,5.0,92,0.03,,,0.04,VWS V12.07,2013-02-22 15:05:00,
2013-02-22 09:06:00,20.5,18.5,29.94,North,1,3.0,5.0,92,0.03,,,0.04,VWS V12.07,2013-02-22 15:06:00,
2013-02-22 09:07:00,20.5,18.5,29.94,NNE,12,4.0,5.0,92,0.03,,,0.04,VWS V12.07,2013-02-22 15:07:00,
2013-02-22 09:10:00,20.5,18.5,29.94,ENE,75,0.0,5.0,92,0.03,,,0.04,VWS V12.07,2013-02-22 15:10:00,
2013-02-22 09:12:00,20.6,18.6,29.94,NNE,16,5.0,8.0,92,0.03,,,0.04,VWS V12.07,2013-02-22 15:12:00,
2013-02-22 09:15:00,20.6,18.6,29.93,North,7,0.0,10.0,92,0.03,,,0.04,VWS V12.07,2013-02-22 15:15:00,
2013-02-22 09:17:00,20.6,18.6,29.93,ENE,59,2.0,10.0,92,0.03,,,0.04,VWS V12.07,2013-02-22 15:17:00,
2013-02-22 09:20:00,20.8,18.9,29.93,NNE,26,6.0,6.0,92,0.03,,,0.04,VWS V12.07,2013-02-22 15:20:00,
2013-02-22 09:22:00,20.8,18.9,29.93,North,4,0.0,6.0,92,0.03,,,0.04,VWS V12.07,2013-02-22 15:22:00,
2013-02-22 09:23:00,21.0,19.0,29.93,North,4,1.0,6.0,92,0.03,,,0.04,VWS V12.07,2013-02-22 15:23:00,
2013-02-22 09:25:00,21.0,19.0,29.93,NNE,14,0.0,6.0,92,0.03,,,0.04,VWS V12.07,2013-02-22 15:25:00,
2013-02-22 09:27:00,21.0,19.0,29.93,NE,41,4.0,6.0,92,0.02,,,0.04,VWS V12.07,2013-02-22 15:27:00,
2013-02-22 09:29:00,21.0,19.0,29.93,NNE,27,5.0,7.0,92,0.02,,,0.04,VWS V12.07,2013-02-22 15:29:00,
2013-02-22 09:30:00,21.1,18.9,29.93,NE,39,0.0,7.0,91,0.03,,,0.05,VWS V12.07,2013-02-22 15:30:00,
2013-02-22 09:32:00,21.1,19.1,29.93,NNE,16,0.0,7.0,92,0.03,,,0.05,VWS V12.07,2013-02-22 15:32:00,
2013-02-22 09:34:00,21.1,19.1,29.93,NNE,17,1.0,7.0,92,0.03,,,0.05,VWS V12.07,2013-02-22 15:34:00,
2013-02-22 09:35:00,21.3,19.3,29.93,North,0,2.0,7.0,92,0.03,,,0.05,VWS V12.07,2013-02-22 15:35:00,
2013-02-22 09:37:00,21.3,19.3,29.93,NE,40,2.0,7.0,92,0.03,,,0.05,VWS V12.07,2013-02-22 15:37:00,
2013-02-22 09:39:00,21.3,19.3,29.93,North,5,3.0,7.0,92,0.03,,,0.05,VWS V12.07,2013-02-22 15:39:00,
2013-02-22 09:40:00,21.3,19.1,29.93,North,356,3.0,7.0,91,0.03,,,0.05,VWS V12.07,2013-02-22 15:40:00,
2013-02-22 09:43:00,21.3,19.1,29.93,NE,37,2.0,6.0,91,0.03,,,0.05,VWS V12.07,2013-02-22 15:43:00,
2013-02-22 09:44:00,21.3,19.1,29.93,East,89,2.0,6.0,91,0.03,,,0.05,VWS V12.07,2013-02-22 15:44:00,
2013-02-22 09:45:00,21.3,19.1,29.92,East,86,0.0,6.0,91,0.03,,,0.05,VWS V12.07,2013-02-22 15:45:00,
2013-02-22 09:48:00,21.3,19.1,29.92,North,349,1.0,6.0,91,0.02,,,0.05,VWS V12.07,2013-02-22 15:48:00,
2013-02-22 09:49:00,21.3,19.1,29.92,NE,51,3.0,3.0,91,0.02,,,0.05,VWS V12.07,2013-02-22 15:49:00,
2013-02-22 09:51:00,21.3,19.1,29.92,North,0,3.0,4.0,91,0.02,,,0.05,VWS V12.07,2013-02-22 15:51:00,
2013-02-22 09:53:00,21.3,18.8,29.92,ESE,110,0.0,4.0,90,0.02,,,0.05,VWS V12.07,2013-02-22 15:53:00,
2013-02-22 09:54:00,21.3,18.8,29.92,East,91,1.0,4.0,90,0.02,,,0.05,VWS V12.07,2013-02-22 15:54:00,
2013-02-22 09:56:00,21.3,18.8,29.92,ENE,66,0.0,4.0,90,0.02,,,0.05,VWS V12.07,2013-02-22 15:56:00,
2013-02-22 09:58:00,21.3,18.8,29.92,NE,44,4.0,5.0,90,0.01,,,0.05,VWS V12.07,2013-02-22 15:58:00,
2013-02-22 09:59:00,21.3,18.8,29.92,North,0,3.0,5.0,90,0.01,,,0.05,VWS V12.07,2013-02-22 15:59:00,
2013-02-22 10:01:00,21.3,18.8,29.92,North,6,2.0,6.0,90,0.01,,,0.05,VWS V12.07,2013-02-22 16:01:00,
2013-02-22 10:03:00,21.4,18.9,29.92,ESE,123,2.0,6.0,90,0.01,,,0.05,VWS V12.07,2013-02-22 16:03:00,
2013-02-22 10:04:00,21.4,18.9,29.92,North,8,1.0,6.0,90,0.01,,,0.05,VWS V12.07,2013-02-22 16:04:00,
2013-02-22 10:06:00,21.4,18.9,29.92,East,84,2.0,6.0,90,0.01,,,0.05,VWS V12.07,2013-02-22 16:06:00,
2013-02-22 10:08:00,21.4,18.9,29.92,NE,48,1.0,6.0,90,0.01,,,0.05,VWS V12.07,2013-02-22 16:08:00,
2013-02-22 10:09:00,21.4,18.9,29.92,NE,48,1.0,5.0,90,0.01,,,0.05,VWS V12.07,2013-02-22 16:09:00,
2013-02-22 10:10:00,21.4,18.9,29.92,North,2,3.0,5.0,90,0.01,,,0.05,VWS V12.07,2013-02-22 16:10:00,
2013-02-22 10:12:00,21.6,19.1,29.92,NE,34,1.0,6.0,90,0.01,,,0.05,VWS V12.07,2013-02-22 16:12:00,
2013-02-22 10:13:00,21.6,19.1,29.92,North,358,2.0,6.0,90,0.01,,,0.05,VWS V12.07,2013-02-22 16:13:00,
2013-02-22 10:14:00,21.6,19.1,29.92,North,0,0.0,6.0,90,0.01,,,0.05,VWS V12.07,2013-02-22 16:14:00,
2013-02-22 10:15:00,21.6,19.1,29.92,SE,127,2.0,6.0,90,0.01,,,0.05,VWS V12.07,2013-02-22 16:15:00,
2013-02-22 10:17:00,21.6,19.1,29.92,ENE,63,1.0,6.0,90,0.01,,,0.05,VWS V12.07,2013-02-22 16:17:00,
2013-02-22 10:19:00,21.8,19.1,29.92,NE,51,1.0,6.0,89,0.01,,,0.05,VWS V12.07,2013-02-22 16:19:00,
2013-02-22 10:20:00,21.8,19.1,29.92,North,1,1.0,9.0,89,0.01,,,0.05,VWS V12.07,2013-02-22 16:20:00,
2013-02-22 10:22:00,21.8,19.1,29.92,North,11,0.0,9.0,89,0.01,,,0.05,VWS V12.07,2013-02-22 16:22:00,
2013-02-22 10:24:00,21.8,19.1,29.92,ESE,112,2.0,9.0,89,0.01,,,0.05,VWS V12.07,2013-02-22 16:24:00,
2013-02-22 10:26:00,21.8,19.1,29.92,NNE,20,1.0,9.0,89,0.01,,,0.05,VWS V12.07,2013-02-22 16:26:00,
2013-02-22 10:27:00,21.9,19.2,29.92,NE,48,5.0,5.0,89,0.01,,,0.05,VWS V12.07,2013-02-22 16:27:00,
2013-02-22 10:29:00,21.9,19.2,29.92,East,86,0.0,5.0,89,0.01,,,0.05,VWS V12.07,2013-02-22 16:29:00,
2013-02-22 10:31:00,21.9,19.2,29.92,ENE,68,2.0,5.0,89,0.01,,,0.05,VWS V12.07,2013-02-22 16:31:00,
2013-02-22 10:32:00,21.9,19.2,29.92,ENE,59,1.0,5.0,89,0.01,,,0.05,VWS V12.07,2013-02-22 16:32:00,
2013-02-22 10:34:00,22.1,19.4,29.92,NNE,21,0.0,5.0,89,0.01,,,0.05,VWS V12.07,2013-02-22 16:34:00,
2013-02-22 10:35:00,22.1,19.4,29.92,NNE,21,1.0,5.0,89,0.01,,,0.05,VWS V12.07,2013-02-22 16:35:00,
2013-02-22 10:36:00,22.1,19.4,29.92,ESE,107,1.0,5.0,89,0.01,,,0.05,VWS V12.07,2013-02-22 16:36:00,
2013-02-22 10:37:00,22.1,19.4,29.92,ESE,107,0.0,2.0,89,0.00,,,0.05,VWS V12.07,2013-02-22 16:37:00,
2013-02-22 10:40:00,22.2,19.5,29.92,NNE,13,2.0,4.0,89,0.00,,,0.05,VWS V12.07,2013-02-22 16:40:00,
2013-02-22 10:42:00,22.2,19.5,29.92,NE,37,3.0,5.0,89,0.00,,,0.05,VWS V12.07,2013-02-22 16:42:00,
2013-02-22 10:45:00,22.2,19.2,29.92,North,356,4.0,5.0,88,0.00,,,0.05,VWS V12.07,2013-02-22 16:45:00,
2013-02-22 10:47:00,22.4,19.4,29.92,NNE,29,1.0,5.0,88,0.00,,,0.05,VWS V12.07,2013-02-22 16:47:00,
2013-02-22 10:48:00,22.4,19.7,29.92,NNE,23,1.0,5.0,89,0.00,,,0.05,VWS V12.07,2013-02-22 16:48:00,
2013-02-22 10:50:00,22.4,19.7,29.92,NNE,19,3.0,7.0,89,0.00,,OVC016,0.05,VWS V12.07,2013-02-22 16:50:00,
2013-02-22 10:52:00,22.4,19.4,29.92,ENE,68,2.0,7.0,88,0.00,,OVC016,0.05,VWS V12.07,2013-02-22 16:52:00,
2013-02-22 10:53:00,22.4,19.4,29.92,NE,52,2.0,7.0,88,0.00,,OVC016,0.05,VWS V12.07,2013-02-22 16:53:00,
2013-02-22 10:56:00,22.5,19.5,29.92,NNE,28,2.0,7.0,88,0.00,,OVC016,0.05,VWS V12.07,2013-02-22 16:56:00,
2013-02-22 10:57:00,22.5,19.5,29.92,East,86,1.0,7.0,88,0.00,,OVC016,0.05,VWS V12.07,2013-02-22 16:57:00,
2013-02-22 10:58:00,22.5,19.8,29.92,East,91,1.0,7.0,89,0.00,,OVC016,0.05,VWS V12.07,2013-02-22 16:58:00,
2013-02-22 11:01:00,22.5,19.5,29.91,NNE,23,1.0,4.0,88,0.00,,OVC016,0.05,VWS V12.07,2013-02-22 17:01:00,
2013-02-22 11:02:00,22.5,19.5,29.91,NNE,23,1.0,4.0,88,0.00,,OVC016,0.05,VWS V12.07,2013-02-22 17:02:00,
2013-02-22 11:03:00,22.7,19.7,29.91,NE,40,1.0,4.0,88,0.00,,OVC016,0.05,VWS V12.07,2013-02-22 17:03:00,
2013-02-22 11:06:00,22.7,19.7,29.91,East,91,2.0,9.0,88,0.00,,OVC016,0.05,VWS V12.07,2013-02-22 17:06:00,
2013-02-22 11:07:00,22.7,19.7,29.91,NE,42,2.0,9.0,88,0.00,,OVC016,0.05,VWS V12.07,2013-02-22 17:07:00,
2013-02-22 11:08:00,22.7,19.7,29.91,NE,42,0.0,9.0,88,0.00,,OVC016,0.05,VWS V12.07,2013-02-22 17:08:00,
2013-02-22 11:09:00,22.7,19.7,29.91,NNE,16,4.0,6.0,88,0.00,,OVC016,0.05,VWS V12.07,2013-02-22 17:09:00,
2013-02-22 11:12:00,22.7,19.7,29.91,East,87,0.0,6.0,88,0.00,,OVC016,0.05,VWS V12.07,2013-02-22 17:12:00,
2013-02-22 11:13:00,22.7,19.7,29.91,NNE,22,1.0,6.0,88,0.00,,OVC016,0.05,VWS V12.07,2013-02-22 17:13:00,
2013-02-22 11:14:00,22.7,19.7,29.91,NNE,31,0.0,6.0,88,0.00,,OVC016,0.05,VWS V12.07,2013-02-22 17:14:00,
2013-02-22 11:17:00,22.7,19.7,29.90,NE,51,1.0,4.0,88,0.00,,OVC016,0.05,VWS V12.07,2013-02-22 17:17:00,
2013-02-22 11:18:00,22.7,19.7,29.90,NE,43,3.0,4.0,88,0.00,,OVC016,0.05,VWS V12.07,2013-02-22 17:18:00,
2013-02-22 11:19:00,22.7,19.7,29.90,North,0,1.0,4.0,88,0.00,,OVC016,0.05,VWS V12.07,2013-02-22 17:19:00,
2013-02-22 11:23:00,22.7,19.7,29.90,NE,37,2.0,8.0,88,0.00,,OVC016,0.05,VWS V12.07,2013-02-22 17:23:00,
2013-02-22 11:24:00,22.7,19.7,29.90,NNE,28,1.0,8.0,88,0.00,,OVC016,0.05,VWS V12.07,2013-02-22 17:24:00,
2013-02-22 11:28:00,22.5,19.5,29.90,East,86,0.0,8.0,88,0.00,,OVC016,0.05,VWS V12.07,2013-02-22 17:28:00,
2013-02-22 11:29:00,22.7,19.7,29.90,East,86,0.0,4.0,88,0.00,,OVC016,0.05,VWS V12.07,2013-02-22 17:29:00,
2013-02-22 11:33:00,22.7,19.7,29.90,ESE,102,2.0,4.0,88,0.00,,OVC016,0.05,VWS V12.07,2013-02-22 17:33:00,
2013-02-22 11:34:00,22.7,19.7,29.90,NE,39,3.0,4.0,88,0.00,,OVC016,0.05,VWS V12.07,2013-02-22 17:34:00,
2013-02-22 11:38:00,22.7,19.7,29.90,NNE,30,2.0,6.0,88,0.00,,OVC012,0.05,VWS V12.07,2013-02-22 17:38:00,
2013-02-22 11:39:00,22.5,19.2,29.90,NNE,32,1.0,6.0,87,0.00,,OVC012,0.05,VWS V12.07,2013-02-22 17:39:00,
2013-02-22 11:43:00,22.5,19.2,29.90,North,357,4.0,10.0,87,0.00,,OVC012,0.05,VWS V12.07,2013-02-22 17:43:00,
2013-02-22 11:44:00,22.5,19.2,29.90,East,89,3.0,10.0,87,0.00,,OVC012,0.05,VWS V12.07,2013-02-22 17:44:00,
2013-02-22 11:48:00,22.5,19.2,29.90,ENE,57,1.0,8.0,87,0.00,,OVC012,0.05,VWS V12.07,2013-02-22 17:48:00,
2013-02-22 11:49:00,22.5,19.2,29.90,East,91,1.0,8.0,87,0.00,,OVC012,0.05,VWS V12.07,2013-02-22 17:49:00,
2013-02-22 11:50:00,22.5,19.2,29.90,East,91,1.0,8.0,87,0.00,,OVC012,0.05,VWS V12.07,2013-02-22 17:50:00,
2013-02-22 11:54:00,22.5,19.2,29.90,ESE,110,3.0,8.0,87,0.00,,,0.06,VWS V12.07,2013-02-22 17:54:00,
2013-02-22 11:55:00,22.5,19.2,29.90,NNE,28,2.0,8.0,87,0.01,,,0.06,VWS V12.07,2013-02-22 17:55:00,
2013-02-22 11:59:00,22.5,19.2,29.90,SSE,151,2.0,6.0,87,0.01,,,0.06,VWS V12.07,2013-02-22 17:59:00,
2013-02-22 12:00:00,22.5,19.2,29.89,North,0,3.0,6.0,87,0.01,,,0.06,VWS V12.07,2013-02-22 18:00:00,
2013-02-22 12:04:00,22.7,19.7,29.89,North,0,1.0,6.0,88,0.01,,,0.06,VWS V12.07,2013-02-22 18:04:00,
2013-02-22 12:05:00,22.7,19.7,29.89,North,8,2.0,6.0,88,0.01,,,0.06,VWS V12.07,2013-02-22 18:05:00,
2013-02-22 12:09:00,22.7,19.7,29.89,North,11,2.0,6.0,88,0.01,,,0.06,VWS V12.07,2013-02-22 18:09:00,
2013-02-22 12:10:00,22.5,19.5,29.89,NE,48,4.0,6.0,88,0.01,,,0.06,VWS V12.07,2013-02-22 18:10:00,
2013-02-22 12:14:00,22.5,19.5,29.89,ENE,78,3.0,10.0,88,0.01,,,0.06,VWS V12.07,2013-02-22 18:14:00,
2013-02-22 12:15:00,22.5,19.5,29.89,NE,56,3.0,10.0,88,0.01,,,0.06,VWS V12.07,2013-02-22 18:15:00,
2013-02-22 12:16:00,22.5,19.5,29.89,North,0,5.0,10.0,88,0.01,,,0.06,VWS V12.07,2013-02-22 18:16:00,
2013-02-22 12:20:00,22.4,19.7,29.89,North,6,0.0,5.0,89,0.01,,,0.06,VWS V12.07,2013-02-22 18:20:00,
2013-02-22 12:21:00,22.5,19.8,29.89,NNE,15,2.0,5.0,89,0.01,,,0.06,VWS V12.07,2013-02-22 18:21:00,
2013-02-22 12:25:00,22.5,19.8,29.89,NE,39,4.0,6.0,89,0.02,,,0.07,VWS V12.07,2013-02-22 18:25:00,
2013-02-22 12:26:00,22.5,19.8,29.89,ENE,71,2.0,6.0,89,0.02,,,0.07,VWS V12.07,2013-02-22 18:26:00,
2013-02-22 12:27:00,22.5,19.8,29.89,East,90,2.0,6.0,89,0.02,,,0.07,VWS V12.07,2013-02-22 18:27:00,
2013-02-22 12:30:00,22.4,19.7,29.88,East,96,2.0,5.0,89,0.02,,,0.07,VWS V12.07,2013-02-22 18:30:00,
2013-02-22 12:31:00,22.4,19.7,29.88,ESE,110,3.0,5.0,89,0.02,,,0.07,VWS V12.07,2013-02-22 18:31:00,
2013-02-22 12:32:00,22.4,19.7,29.88,ESE,115,4.0,5.0,89,0.02,,,0.07,VWS V12.07,2013-02-22 18:32:00,
2013-02-22 12:35:00,22.4,19.7,29.88,North,358,4.0,5.0,89,0.02,,,0.07,VWS V12.07,2013-02-22 18:35:00,
2013-02-22 12:36:00,22.4,19.7,29.88,ENE,67,2.0,5.0,89,0.02,,,0.07,VWS V12.07,2013-02-22 18:36:00,
2013-02-22 12:37:00,22.4,19.7,29.88,East,94,3.0,5.0,89,0.02,,,0.07,VWS V12.07,2013-02-22 18:37:00,
2013-02-22 12:41:00,22.5,19.8,29.88,East,94,1.0,4.0,89,0.02,,,0.07,VWS V12.07,2013-02-22 18:41:00,
2013-02-22 12:42:00,22.5,20.0,29.88,ENE,74,1.0,4.0,90,0.02,,,0.07,VWS V12.07,2013-02-22 18:42:00,
2013-02-22 12:46:00,22.7,20.2,29.87,ESE,111,0.0,4.0,90,0.02,,,0.07,VWS V12.07,2013-02-22 18:46:00,
2013-02-22 12:47:00,22.7,20.2,29.87,ESE,111,0.0,4.0,90,0.03,,,0.08,VWS V12.07,2013-02-22 18:47:00,
2013-02-22 12:51:00,22.9,20.4,29.87,North,349,3.0,7.0,90,0.03,,,0.08,VWS V12.07,2013-02-22 18:51:00,
2013-02-22 12:52:00,22.7,20.2,29.87,NNE,14,9.0,9.0,90,0.03,,,0.08,VWS V12.07,2013-02-22 18:52:00,
2013-02-22 12:56:00,22.7,20.2,29.87,NE,48,2.0,11.0,90,0.02,,,0.08,VWS V12.07,2013-02-22 18:56:00,
2013-02-22 12:57:00,22.7,20.2,29.87,NE,48,1.0,11.0,90,0.02,,,0.08,VWS V12.07,2013-02-22 18:57:00,
2013-02-22 12:58:00,22.7,20.2,29.87,NE,38,0.0,11.0,90,0.02,,,0.08,VWS V12.07,2013-02-22 18:58:00,
2013-02-22 13:02:00,22.7,20.5,29.86,NE,53,1.0,7.0,91,0.02,,,0.08,VWS V12.07,2013-02-22 19:02:00,
2013-02-22 13:03:00,22.7,20.5,29.86,NNE,21,2.0,7.0,91,0.02,,,0.08,VWS V12.07,2013-02-22 19:03:00,
2013-02-22 13:07:00,22.7,20.5,29.86,North,0,1.0,7.0,91,0.02,,,0.08,VWS V12.07,2013-02-22 19:07:00,
2013-02-22 13:08:00,22.7,20.5,29.86,North,0,1.0,7.0,91,0.02,,,0.08,VWS V12.07,2013-02-22 19:08:00,
2013-02-22 13:12:00,22.9,20.7,29.86,ENE,63,0.0,5.0,91,0.02,,,0.08,VWS V12.07,2013-02-22 19:12:00,
2013-02-22 13:13:00,22.9,20.7,29.86,NNE,28,2.0,5.0,91,0.02,,,0.08,VWS V12.07,2013-02-22 19:13:00,
2013-02-22 13:14:00,22.9,20.7,29.86,NNW,336,5.0,5.0,91,0.02,,,0.08,VWS V12.07,2013-02-22 19:14:00,
2013-02-22 13:17:00,22.7,20.5,29.85,NNE,32,4.0,11.0,91,0.03,,,0.09,VWS V12.07,2013-02-22 19:17:00,
2013-02-22 13:18:00,22.7,20.5,29.85,North,354,4.0,11.0,91,0.03,,,0.09,VWS V12.07,2013-02-22 19:18:00,
2013-02-22 13:19:00,22.7,20.5,29.85,NE,45,2.0,11.0,91,0.03,,,0.09,VWS V12.07,2013-02-22 19:19:00,
2013-02-22 13:23:00,22.7,20.5,29.85,NE,56,1.0,11.0,91,0.03,,,0.09,VWS V12.07,2013-02-22 19:23:00,
2013-02-22 13:24:00,22.7,20.5,29.85,NE,56,0.0,11.0,91,0.03,,,0.09,VWS V12.07,2013-02-22 19:24:00,
2013-02-22 13:28:00,22.7,20.5,29.85,ENE,57,3.0,11.0,91,0.02,,,0.09,VWS V12.07,2013-02-22 19:28:00,
2013-02-22 13:29:00,22.7,20.5,29.85,ESE,109,3.0,6.0,91,0.02,,,0.09,VWS V12.07,2013-02-22 19:29:00,
2013-02-22 13:33:00,22.7,20.5,29.85,NNE,30,3.0,6.0,91,0.02,,,0.09,VWS V12.07,2013-02-22 19:33:00,
2013-02-22 13:34:00,22.7,20.5,29.85,NNE,18,4.0,7.0,91,0.02,,,0.09,VWS V12.07,2013-02-22 19:34:00,
2013-02-22 13:35:00,22.7,20.5,29.85,NNE,13,1.0,7.0,91,0.02,,,0.09,VWS V12.07,2013-02-22 19:35:00,
2013-02-22 13:38:00,22.9,20.9,29.85,NNE,20,2.0,7.0,92,0.02,,,0.09,VWS V12.07,2013-02-22 19:38:00,
2013-02-22 13:39:00,22.9,20.9,29.85,ESE,112,5.0,5.0,92,0.02,,,0.09,VWS V12.07,2013-02-22 19:39:00,
2013-02-22 13:40:00,22.9,20.9,29.85,NNW,345,1.0,6.0,92,0.02,,,0.09,VWS V12.07,2013-02-22 19:40:00,
2013-02-22 13:43:00,22.9,20.9,29.85,North,10,0.0,9.0,92,0.02,,,0.09,VWS V12.07,2013-02-22 19:43:00,
2013-02-22 13:44:00,23.0,21.0,29.85,North,10,1.0,9.0,92,0.02,,,0.09,VWS V12.07,2013-02-22 19:44:00,
2013-02-22 13:45:00,23.0,21.0,29.85,North,10,0.0,9.0,92,0.02,,,0.09,VWS V12.07,2013-02-22 19:45:00,
2013-02-22 13:49:00,23.0,21.0,29.85,NNE,29,3.0,9.0,92,0.02,,,0.09,VWS V12.07,2013-02-22 19:49:00,
2013-02-22 13:50:00,23.2,21.2,29.85,NE,43,3.0,3.0,92,0.02,,,0.09,VWS V12.07,2013-02-22 19:50:00,
2013-02-22 13:54:00,23.2,21.2,29.85,NNE,28,1.0,3.0,92,0.03,,,0.10,VWS V12.07,2013-02-22 19:54:00,
2013-02-22 13:55:00,23.2,21.2,29.85,NNE,29,1.0,3.0,92,0.03,,,0.10,VWS V12.07,2013-02-22 19:55:00,
2013-02-22 13:59:00,23.2,21.2,29.85,NNE,23,1.0,5.0,92,0.02,,,0.10,VWS V12.07,2013-02-22 19:59:00,
2013-02-22 14:00:00,23.2,21.2,29.84,NNW,341,3.0,5.0,92,0.02,,,0.10,VWS V12.07,2013-02-22 20:00:00,
2013-02-22 14:01:00,23.2,21.2,29.84,North,349,2.0,5.0,92,0.02,,,0.10,VWS V12.07,2013-02-22 20:01:00,
2013-02-22 14:04:00,23.0,21.0,29.84,NNW,340,1.0,7.0,92,0.02,,,0.10,VWS V12.07,2013-02-22 20:04:00,
2013-02-22 14:05:00,23.0,21.0,29.84,NE,38,5.0,7.0,92,0.02,,,0.10,VWS V12.07,2013-02-22 20:05:00,
2013-02-22 14:06:00,23.0,21.0,29.84,NE,42,1.0,7.0,92,0.02,,,0.10,VWS V12.07,2013-02-22 20:06:00,
2013-02-22 14:09:00,23.0,21.0,29.84,NNW,333,0.0,4.0,92,0.02,,,0.10,VWS V12.07,2013-02-22 20:09:00,
2013-02-22 14:10:00,23.0,21.3,29.84,NNW,342,1.0,4.0,93,0.02,,,0.10,VWS V12.07,2013-02-22 20:10:00,
2013-02-22 14:11:00,23.0,21.3,29.84,North,0,5.0,7.0,93,0.02,,,0.10,VWS V12.07,2013-02-22 20:11:00,
2013-02-22 14:14:00,22.9,20.9,29.84,NE,36,2.0,7.0,92,0.02,,,0.10,VWS V12.07,2013-02-22 20:14:00,
2013-02-22 14:15:00,22.9,20.9,29.83,ENE,68,2.0,7.0,92,0.02,,,0.10,VWS V12.07,2013-02-22 20:15:00,
2013-02-22 14:16:00,22.9,20.9,29.83,ENE,68,0.0,7.0,92,0.02,,,0.10,VWS V12.07,2013-02-22 20:16:00,
2013-02-22 14:19:00,23.0,21.3,29.83,North,9,0.0,3.0,93,0.02,,,0.10,VWS V12.07,2013-02-22 20:19:00,
2013-02-22 14:21:00,23.0,21.3,29.83,NNE,23,1.0,3.0,93,0.02,,,0.10,VWS V12.07,2013-02-22 20:21:00,
2013-02-22 14:24:00,23.0,21.3,29.83,NNW,338,6.0,7.0,93,0.02,,,0.10,VWS V12.07,2013-02-22 20:24:00,
2013-02-22 14:26:00,23.0,21.0,29.83,North,0,5.0,9.0,92,0.02,,,0.10,VWS V12.07,2013-02-22 20:26:00,
2013-02-22 14:29:00,22.9,21.2,29.83,NNE,33,1.0,5.0,93,0.01,,,0.10,VWS V12.07,2013-02-22 20:29:00,
2013-02-22 14:31:00,23.0,21.3,29.83,NE,47,2.0,5.0,93,0.01,,,0.10,VWS V12.07,2013-02-22 20:31:00,
2013-02-22 14:35:00,23.0,21.3,29.83,NE,48,2.0,5.0,93,0.02,,,0.11,VWS V12.07,2013-02-22 20:35:00,
2013-02-22 14:36:00,23.0,21.3,29.83,NNE,15,0.0,5.0,93,0.02,,,0.11,VWS V12.07,2013-02-22 20:36:00,
2013-02-22 14:37:00,23.0,21.3,29.83,NNE,31,2.0,5.0,93,0.02,,,0.11,VWS V12.07,2013-02-22 20:37:00,
2013-02-22 14:40:00,23.0,21.3,29.83,East,95,1.0,4.0,93,0.02,,,0.11,VWS V12.07,2013-02-22 20:40:00,
2013-02-22 14:42:00,23.0,21.3,29.83,North,11,1.0,4.0,93,0.02,,,0.11,VWS V12.07,2013-02-22 20:42:00,
2013-02-22 14:45:00,22.9,21.2,29.83,NE,45,2.0,4.0,93,0.02,,,0.11,VWS V12.07,2013-02-22 20:45:00,
2013-02-22 14:47:00,22.9,21.2,29.83,North,1,2.0,4.0,93,0.02,,,0.11,VWS V12.07,2013-02-22 20:47:00,
2013-02-22 14:48:00,22.9,21.2,29.83,NNE,28,2.0,4.0,93,0.02,,,0.11,VWS V12.07,2013-02-22 20:48:00,
2013-02-22 14:50:00,22.9,21.2,29.83,NE,34,2.0,4.0,93,0.02,,,0.11,VWS V12.07,2013-02-22 20:50:00,
2013-02-22 14:52:00,23.0,21.3,29.83,North,0,2.0,4.0,93,0.02,,,0.11,VWS V12.07,2013-02-22 20:52:00,
2013-02-22 14:53:00,23.0,21.3,29.83,North,1,1.0,0.0,93,0.02,,,0.11,VWS V12.07,2013-02-22 20:53:00,
2013-02-22 14:55:00,23.0,21.3,29.83,NE,40,0.0,4.0,93,0.02,,,0.11,VWS V12.07,2013-02-22 20:55:00,
2013-02-22 14:58:00,23.0,21.3,29.83,North,6,2.0,4.0,93,0.01,,,0.11,VWS V12.07,2013-02-22 20:58:00,
2013-02-22 15:01:00,23.0,21.3,29.81,NNE,13,1.0,9.0,93,0.01,,,0.11,VWS V12.07,2013-02-22 21:01:00,
2013-02-22 15:03:00,23.0,21.3,29.81,NE,43,2.0,9.0,93,0.01,,,0.11,VWS V12.07,2013-02-22 21:03:00,
2013-02-22 15:04:00,23.0,21.3,29.81,East,89,1.0,9.0,93,0.01,,,0.11,VWS V12.07,2013-02-22 21:04:00,
2013-02-22 15:06:00,23.0,21.3,29.81,NNE,30,1.0,9.0,93,0.01,,,0.11,VWS V12.07,2013-02-22 21:06:00,
2013-02-22 15:08:00,22.9,21.2,29.81,North,11,1.0,9.0,93,0.01,,,0.11,VWS V12.07,2013-02-22 21:08:00,
2013-02-22 15:09:00,22.9,21.2,29.81,NNE,17,0.0,6.0,93,0.01,,,0.11,VWS V12.07,2013-02-22 21:09:00,
2013-02-22 15:12:00,22.9,21.2,29.81,NE,35,0.0,6.0,93,0.01,,,0.11,VWS V12.07,2013-02-22 21:12:00,
2013-02-22 15:13:00,22.9,21.2,29.81,North,8,3.0,6.0,93,0.01,,,0.11,VWS V12.07,2013-02-22 21:13:00,
2013-02-22 15:14:00,22.9,21.2,29.81,NE,40,1.0,6.0,93,0.01,,,0.11,VWS V12.07,2013-02-22 21:14:00,
2013-02-22 15:16:00,22.9,21.2,29.82,NE,40,1.0,6.0,93,0.01,,,0.11,VWS V12.07,2013-02-22 21:16:00,
2013-02-22 15:17:00,22.9,21.2,29.82,NNE,25,5.0,6.0,93,0.01,,,0.11,VWS V12.07,2013-02-22 21:17:00,
2013-02-22 15:18:00,22.9,21.2,29.82,NE,36,1.0,7.0,93,0.01,,,0.11,VWS V12.07,2013-02-22 21:18:00,
2013-02-22 15:19:00,22.9,21.2,29.82,NE,36,2.0,7.0,93,0.01,,,0.11,VWS V12.07,2013-02-22 21:19:00,
2013-02-22 15:21:00,22.9,21.2,29.82,ENE,72,0.0,7.0,93,0.02,,,0.12,VWS V12.07,2013-02-22 21:21:00,
2013-02-22 15:22:00,23.0,21.3,29.82,NNE,27,2.0,7.0,93,0.02,,,0.12,VWS V12.07,2013-02-22 21:22:00,
2013-02-22 15:23:00,23.0,21.3,29.82,ENE,73,1.0,7.0,93,0.02,,,0.12,VWS V12.07,2013-02-22 21:23:00,
2013-02-22 15:25:00,23.0,21.5,29.82,NE,49,2.0,7.0,94,0.02,,,0.12,VWS V12.07,2013-02-22 21:25:00,
2013-02-22 15:26:00,23.0,21.5,29.82,NNE,19,0.0,7.0,94,0.02,,,0.12,VWS V12.07,2013-02-22 21:26:00,
2013-02-22 15:27:00,23.0,21.5,29.82,NNE,24,1.0,7.0,94,0.02,,,0.12,VWS V12.07,2013-02-22 21:27:00,
2013-02-22 15:29:00,23.0,21.5,29.82,NNE,24,0.0,2.0,94,0.02,,,0.12,VWS V12.07,2013-02-22 21:29:00,
2013-02-22 15:30:00,23.0,21.5,29.81,NE,54,0.0,3.0,94,0.02,,,0.12,VWS V12.07,2013-02-22 21:30:00,
2013-02-22 15:31:00,23.2,21.7,29.81,NNE,14,2.0,3.0,94,0.02,,,0.12,VWS V12.07,2013-02-22 21:31:00,
2013-02-22 15:33:00,23.2,21.7,29.81,NE,39,1.0,3.0,94,0.02,,,0.12,VWS V12.07,2013-02-22 21:33:00,
2013-02-22 15:34:00,23.2,21.7,29.81,North,354,1.0,3.0,94,0.02,,,0.12,VWS V12.07,2013-02-22 21:34:00,
2013-02-22 15:35:00,23.0,21.3,29.81,NNE,29,4.0,6.0,93,0.02,,,0.12,VWS V12.07,2013-02-22 21:35:00,
2013-02-22 15:36:00,23.0,21.3,29.81,East,84,1.0,6.0,93,0.01,,,0.12,VWS V12.07,2013-02-22 21:36:00,
2013-02-22 15:38:00,23.0,21.3,29.81,ENE,71,1.0,7.0,93,0.01,,,0.12,VWS V12.07,2013-02-22 21:38:00,
2013-02-22 15:39:00,23.0,21.3,29.81,ENE,71,0.0,7.0,93,0.01,,,0.12,VWS V12.07,2013-02-22 21:39:00,
2013-02-22 15:41:00,23.0,21.3,29.81,ENE,71,0.0,7.0,93,0.01,,,0.12,VWS V12.07,2013-02-22 21:41:00,
2013-02-22 15:42:00,23.0,21.3,29.81,North,0,1.0,7.0,93,0.01,,,0.12,VWS V12.07,2013-02-22 21:42:00,
2013-02-22 15:43:00,22.9,21.2,29.81,NE,50,1.0,7.0,93,0.01,,,0.12,VWS V12.07,2013-02-22 21:43:00,
2013-02-22 15:44:00,22.9,21.2,29.81,NE,41,4.0,7.0,93,0.01,,,0.12,VWS V12.07,2013-02-22 21:44:00,
2013-02-22 15:46:00,22.9,21.2,29.81,NE,36,1.0,7.0,93,0.01,,,0.12,VWS V12.07,2013-02-22 21:46:00,
2013-02-22 15:47:00,22.9,21.2,29.81,NE,40,1.0,7.0,93,0.01,,,0.12,VWS V12.07,2013-02-22 21:47:00,
2013-02-22 15:48:00,22.9,21.2,29.81,NE,40,1.0,7.0,93,0.01,,,0.12,VWS V12.07,2013-02-22 21:48:00,
2013-02-22 15:49:00,22.9,21.2,29.81,NE,40,0.0,3.0,93,0.01,,,0.12,VWS V12.07,2013-02-22 21:49:00,
2013-02-22 15:51:00,22.9,21.4,29.81,NNE,29,0.0,3.0,94,0.01,,,0.12,VWS V12.07,2013-02-22 21:51:00,
2013-02-22 15:53:00,22.9,21.4,29.81,NNE,33,0.0,3.0,94,0.01,,,0.12,VWS V12.07,2013-02-22 21:53:00,
2013-02-22 15:54:00,22.9,21.4,29.81,NNE,30,3.0,3.0,94,0.01,,,0.12,VWS V12.07,2013-02-22 21:54:00,
2013-02-22 15:57:00,22.9,21.4,29.81,NNE,29,0.0,3.0,94,0.01,,,0.12,VWS V12.07,2013-02-22 21:57:00,
2013-02-22 15:58:00,22.9,21.4,29.81,NNE,32,2.0,3.0,94,0.01,,,0.12,VWS V12.07,2013-02-22 21:58:00,
2013-02-22 15:59:00,22.9,21.4,29.81,NE,40,3.0,4.0,94,0.01,,,0.12,VWS V12.07,2013-02-22 21:59:00,
2013-02-22 16:02:00,22.9,21.2,29.81,North,0,0.0,4.0,93,0.01,,,0.12,VWS V12.07,2013-02-22 22:02:00,
2013-02-22 16:03:00,22.9,21.2,29.81,NE,34,2.0,4.0,93,0.01,,,0.12,VWS V12.07,2013-02-22 22:03:00,
2013-02-22 16:04:00,22.7,21.0,29.81,North,7,0.0,5.0,93,0.01,,,0.12,VWS V12.07,2013-02-22 22:04:00,
2013-02-22 16:07:00,22.7,21.0,29.81,NNE,18,2.0,5.0,93,0.01,,,0.12,VWS V12.07,2013-02-22 22:07:00,
2013-02-22 16:08:00,22.7,21.0,29.81,ENE,73,0.0,5.0,93,0.01,,,0.12,VWS V12.07,2013-02-22 22:08:00,
2013-02-22 16:09:00,22.7,21.0,29.81,ENE,73,0.0,5.0,93,0.01,,,0.12,VWS V12.07,2013-02-22 22:09:00,
2013-02-22 16:10:00,22.7,21.0,29.81,NNE,27,1.0,4.0,93,0.01,,,0.12,VWS V12.07,2013-02-22 22:10:00,
2013-02-22 16:12:00,22.5,20.8,29.81,North,0,3.0,4.0,93,0.01,,,0.12,VWS V12.07,2013-02-22 22:12:00,
2013-02-22 16:13:00,22.5,20.8,29.81,NNE,24,0.0,4.0,93,0.01,,,0.12,VWS V12.07,2013-02-22 22:13:00,
2013-02-22 16:14:00,22.5,20.8,29.81,NE,43,2.0,4.0,93,0.01,,,0.12,VWS V12.07,2013-02-22 22:14:00,
2013-02-22 16:15:00,22.5,20.8,29.81,ENE,70,1.0,4.0,93,0.01,,,0.12,VWS V12.07,2013-02-22 22:15:00,
2013-02-22 16:17:00,22.5,20.8,29.81,NE,48,1.0,4.0,93,0.02,,,0.13,VWS V12.07,2013-02-22 22:17:00,
2013-02-22 16:19:00,22.5,20.8,29.81,NNE,30,0.0,3.0,93,0.02,,,0.13,VWS V12.07,2013-02-22 22:19:00,
2013-02-22 16:20:00,22.5,20.8,29.81,NNE,30,2.0,3.0,93,0.02,,,0.13,VWS V12.07,2013-02-22 22:20:00,
2013-02-22 16:23:00,22.5,20.8,29.81,North,9,1.0,3.0,93,0.02,,,0.13,VWS V12.07,2013-02-22 22:23:00,
2013-02-22 16:24:00,22.5,20.8,29.81,North,5,2.0,3.0,93,0.02,,,0.13,VWS V12.07,2013-02-22 22:24:00,
2013-02-22 16:25:00,22.5,20.8,29.81,North,6,0.0,3.0,93,0.02,,,0.13,VWS V12.07,2013-02-22 22:25:00,
2013-02-22 16:28:00,22.5,20.8,29.81,NNE,15,0.0,5.0,93,0.01,,,0.13,VWS V12.07,2013-02-22 22:28:00,
2013-02-22 16:29:00,22.5,20.8,29.81,NNE,15,0.0,5.0,93,0.01,,,0.13,VWS V12.07,2013-02-22 22:29:00,
2013-02-22 16:30:00,22.5,20.8,29.81,North,8,1.0,5.0,93,0.01,,,0.13,VWS V12.07,2013-02-22 22:30:00,
2013-02-22 16:33:00,22.5,20.8,29.81,North,10,1.0,5.0,93,0.01,,,0.13,VWS V12.07,2013-02-22 22:33:00,
2013-02-22 16:34:00,22.5,20.8,29.81,North,10,1.0,5.0,93,0.01,,,0.13,VWS V12.07,2013-02-22 22:34:00,
2013-02-22 16:35:00,22.5,20.8,29.81,NNE,17,2.0,5.0,93,0.01,,,0.13,VWS V12.07,2013-02-22 22:35:00,
2013-02-22 16:36:00,22.5,20.8,29.81,NNE,15,1.0,5.0,93,0.01,,,0.13,VWS V12.07,2013-02-22 22:36:00,
2013-02-22 16:38:00,22.4,20.7,29.81,ENE,58,2.0,5.0,93,0.01,,,0.13,VWS V12.07,2013-02-22 22:38:00,
2013-02-22 16:39:00,22.4,20.7,29.81,NNE,27,1.0,5.0,93,0.01,,,0.13,VWS V12.07,2013-02-22 22:39:00,
2013-02-22 16:41:00,22.4,20.7,29.81,NNE,13,0.0,5.0,93,0.01,,,0.13,VWS V12.07,2013-02-22 22:41:00,
2013-02-22 16:43:00,22.4,20.7,29.81,NNE,28,2.0,5.0,93,0.01,,,0.13,VWS V12.07,2013-02-22 22:43:00,
2013-02-22 16:44:00,22.4,20.7,29.81,NNE,28,0.0,5.0,93,0.01,,,0.13,VWS V12.07,2013-02-22 22:44:00,
2013-02-22 16:46:00,22.4,20.7,29.81,North,0,0.0,5.0,93,0.01,,,0.13,VWS V12.07,2013-02-22 22:46:00,
2013-02-22 16:49:00,22.2,20.5,29.81,North,0,1.0,2.0,93,0.01,,,0.13,VWS V12.07,2013-02-22 22:49:00,
2013-02-22 16:51:00,22.2,20.5,29.81,NE,44,2.0,4.0,93,0.01,,,0.13,VWS V12.07,2013-02-22 22:51:00,
2013-02-22 16:52:00,22.2,20.5,29.81,NE,45,1.0,4.0,93,0.01,,,0.13,VWS V12.07,2013-02-22 22:52:00,
2013-02-22 16:54:00,22.2,20.5,29.81,North,350,2.0,4.0,93,0.01,,,0.13,VWS V12.07,2013-02-22 22:54:00,
2013-02-22 16:56:00,22.2,20.5,29.81,North,350,0.0,4.0,93,0.01,,,0.13,VWS V12.07,2013-02-22 22:56:00,
2013-02-22 16:57:00,22.2,20.5,29.81,North,350,0.0,4.0,93,0.01,,,0.13,VWS V12.07,2013-02-22 22:57:00,
2013-02-22 16:59:00,22.2,20.5,29.82,East,101,1.0,2.0,93,0.01,,,0.13,VWS V12.07,2013-02-22 22:59:00,
2013-02-22 17:00:00,22.2,20.5,29.82,East,101,0.0,2.0,93,0.01,,,0.13,VWS V12.07,2013-02-22 23:00:00,
2013-02-22 17:01:00,22.2,20.5,29.82,NE,47,0.0,2.0,93,0.01,,,0.13,VWS V12.07,2013-02-22 23:01:00,
2013-02-22 17:02:00,22.2,20.5,29.82,NE,47,0.0,2.0,93,0.01,,,0.13,VWS V12.07,2013-02-22 23:02:00,
2013-02-22 17:04:00,22.2,20.5,29.82,NE,44,0.0,2.0,93,0.01,,,0.13,VWS V12.07,2013-02-22 23:04:00,
2013-02-22 17:05:00,22.2,20.5,29.82,NE,44,1.0,2.0,93,0.01,,,0.13,VWS V12.07,2013-02-22 23:05:00,
2013-02-22 17:07:00,22.2,20.5,29.82,NE,44,0.0,2.0,93,0.01,,,0.13,VWS V12.07,2013-02-22 23:07:00,
2013-02-22 17:08:00,22.2,20.5,29.82,North,5,3.0,3.0,93,0.01,,,0.13,VWS V12.07,2013-02-22 23:08:00,
2013-02-22 17:09:00,22.1,20.4,29.82,NNE,23,0.0,3.0,93,0.01,,,0.13,VWS V12.07,2013-02-22 23:09:00,
2013-02-22 17:10:00,22.1,20.4,29.82,NNE,23,0.0,3.0,93,0.01,,,0.13,VWS V12.07,2013-02-22 23:10:00,
2013-02-22 17:12:00,22.1,20.4,29.82,NNE,14,1.0,3.0,93,0.01,,,0.13,VWS V12.07,2013-02-22 23:12:00,
2013-02-22 17:13:00,22.1,20.4,29.82,North,11,3.0,3.0,93,0.01,,,0.13,VWS V12.07,2013-02-22 23:13:00,
2013-02-22 17:15:00,22.1,20.4,29.82,ENE,71,1.0,4.0,93,0.01,,,0.13,VWS V12.07,2013-02-22 23:15:00,
2013-02-22 17:17:00,22.1,20.4,29.82,ENE,60,1.0,4.0,93,0.00,,,0.13,VWS V12.07,2013-02-22 23:17:00,
2013-02-22 17:18:00,22.1,20.4,29.82,ENE,58,1.0,4.0,93,0.00,,,0.13,VWS V12.07,2013-02-22 23:18:00,
2013-02-22 17:20:00,21.9,19.9,29.82,NE,36,0.0,3.0,92,0.00,,,0.13,VWS V12.07,2013-02-22 23:20:00,
2013-02-22 17:21:00,21.9,20.2,29.82,NE,36,0.0,3.0,93,0.00,,,0.13,VWS V12.07,2013-02-22 23:21:00,
2013-02-22 17:22:00,21.9,20.2,29.82,NE,36,0.0,3.0,93,0.00,,,0.13,VWS V12.07,2013-02-22 23:22:00,
2013-02-22 17:23:00,21.9,20.2,29.82,NE,36,0.0,3.0,93,0.00,,,0.13,VWS V12.07,2013-02-22 23:23:00,
2013-02-22 17:25:00,21.9,20.2,29.82,NNE,27,2.0,4.0,93,0.00,,,0.13,VWS V12.07,2013-02-22 23:25:00,
2013-02-22 17:26:00,21.9,19.9,29.82,NNE,27,0.0,4.0,92,0.00,,,0.13,VWS V12.07,2013-02-22 23:26:00,
2013-02-22 17:27:00,21.9,20.2,29.82,NNE,27,0.0,4.0,93,0.00,,,0.13,VWS V12.07,2013-02-22 23:27:00,
2013-02-22 17:28:00,21.9,20.2,29.82,NNE,25,3.0,3.0,93,0.00,,,0.13,VWS V12.07,2013-02-22 23:28:00,
2013-02-22 17:31:00,21.9,20.2,29.82,NNE,25,0.0,3.0,93,0.00,,,0.13,VWS V12.07,2013-02-22 23:31:00,
2013-02-22 17:32:00,21.9,19.9,29.82,NNE,30,2.0,3.0,92,0.00,,,0.13,VWS V12.07,2013-02-22 23:32:00,
2013-02-22 17:33:00,21.8,20.1,29.82,NNE,16,2.0,3.0,93,0.00,,,0.13,VWS V12.07,2013-02-22 23:33:00,
2013-02-22 17:36:00,21.8,19.8,29.82,NNE,18,0.0,3.0,92,0.00,,,0.13,VWS V12.07,2013-02-22 23:36:00,
2013-02-22 17:37:00,21.8,19.8,29.82,NNE,18,1.0,3.0,92,0.00,,,0.13,VWS V12.07,2013-02-22 23:37:00,
2013-02-22 17:39:00,21.8,19.8,29.82,ENE,68,0.0,0.0,92,0.00,,,0.13,VWS V12.07,2013-02-22 23:39:00,
2013-02-22 17:41:00,21.8,20.1,29.82,North,8,1.0,2.0,93,0.00,,,0.13,VWS V12.07,2013-02-22 23:41:00,
2013-02-22 17:42:00,21.8,19.8,29.82,NE,34,1.0,2.0,92,0.00,,,0.13,VWS V12.07,2013-02-22 23:42:00,
2013-02-22 17:44:00,21.8,20.1,29.82,NE,35,0.0,2.0,93,0.00,,,0.13,VWS V12.07,2013-02-22 23:44:00,
2013-02-22 17:46:00,21.8,19.8,29.82,NE,35,0.0,2.0,92,0.00,,,0.13,VWS V12.07,2013-02-22 23:46:00,
2013-02-22 17:47:00,21.8,20.1,29.82,NE,35,0.0,2.0,93,0.00,,,0.13,VWS V12.07,2013-02-22 23:47:00,
2013-02-22 17:48:00,21.6,19.9,29.82,NE,35,0.0,2.0,93,0.00,,,0.13,VWS V12.07,2013-02-22 23:48:00,
2013-02-22 17:49:00,21.6,19.9,29.82,NE,35,0.0,1.0,93,0.00,,,0.13,VWS V12.07,2013-02-22 23:49:00,
2013-02-22 17:51:00,21.6,19.9,29.82,NE,35,0.0,1.0,93,0.00,,,0.13,VWS V12.07,2013-02-22 23:51:00,
2013-02-22 17:52:00,21.6,19.9,29.82,NE,35,0.0,1.0,93,0.00,,,0.13,VWS V12.07,2013-02-22 23:52:00,
2013-02-22 17:53:00,21.6,19.9,29.82,NE,35,1.0,2.0,93,0.00,,,0.13,VWS V12.07,2013-02-22 23:53:00,
2013-02-22 17:54:00,21.6,19.9,29.82,NE,35,0.0,2.0,93,0.00,,,0.13,VWS V12.07,2013-02-22 23:54:00,
2013-02-22 17:56:00,21.6,19.9,29.82,NE,35,0.0,2.0,93,0.00,,,0.13,VWS V12.07,2013-02-22 23:56:00,
2013-02-22 17:58:00,21.6,19.9,29.82,NE,35,2.0,2.0,93,0.00,,,0.13,VWS V12.07,2013-02-22 23:58:00,
2013-02-22 17:59:00,21.6,19.9,29.82,NE,35,0.0,2.0,93,0.00,,,0.13,VWS V12.07,2013-02-22 23:59:00,
2013-02-22 18:01:00,21.6,19.9,29.82,NE,35,0.0,2.0,93,0.00,,,0.13,VWS V12.07,2013-02-23 00:01:00,
2013-02-22 18:03:00,21.6,19.9,29.82,NE,35,0.0,2.0,93,0.00,,,0.13,VWS V12.07,2013-02-23 00:03:00,
2013-02-22 18:05:00,21.6,19.9,29.82,NE,35,0.0,2.0,93,0.00,,,0.13,VWS V12.07,2013-02-23 00:05:00,
2013-02-22 18:06:00,21.6,19.9,29.82,NE,35,0.0,2.0,93,0.00,,,0.13,VWS V12.07,2013-02-23 00:06:00,
2013-02-22 18:08:00,21.6,19.9,29.82,NE,35,0.0,2.0,93,0.00,,,0.13,VWS V12.07,2013-02-23 00:08:00,
2013-02-22 18:10:00,21.6,19.9,29.82,NE,35,0.0,0.0,93,0.00,,,0.13,VWS V12.07,2013-02-23 00:10:00,
2013-02-22 18:11:00,21.6,19.9,29.82,NE,35,0.0,0.0,93,0.00,,,0.13,VWS V12.07,2013-02-23 00:11:00,
2013-02-22 18:13:00,21.6,19.9,29.82,NE,35,0.0,0.0,93,0.00,,,0.13,VWS V12.07,2013-02-23 00:13:00,
2013-02-22 18:15:00,21.6,19.9,29.81,NE,35,0.0,0.0,93,0.00,,,0.13,VWS V12.07,2013-02-23 00:15:00,
2013-02-22 18:17:00,21.6,19.9,29.81,NE,35,0.0,0.0,93,0.00,,,0.13,VWS V12.07,2013-02-23 00:17:00,
2013-02-22 18:18:00,21.4,19.7,29.81,NE,35,0.0,0.0,93,0.00,,,0.13,VWS V12.07,2013-02-23 00:18:00,
2013-02-22 18:20:00,21.4,19.7,29.81,NE,35,0.0,0.0,93,0.00,,,0.13,VWS V12.07,2013-02-23 00:20:00,
2013-02-22 18:22:00,21.4,19.7,29.81,NE,35,0.0,0.0,93,0.00,,,0.13,VWS V12.07,2013-02-23 00:22:00,
2013-02-22 18:23:00,21.4,19.7,29.81,NE,35,0.0,0.0,93,0.00,,,0.13,VWS V12.07,2013-02-23 00:23:00,
2013-02-22 18:25:00,21.4,19.7,29.81,NE,35,0.0,1.0,93,0.00,,,0.13,VWS V12.07,2013-02-23 00:25:00,
2013-02-22 18:27:00,21.4,19.7,29.81,NE,35,0.0,1.0,93,0.00,,,0.13,VWS V12.07,2013-02-23 00:27:00,
2013-02-22 18:28:00,21.4,19.7,29.81,NE,35,0.0,0.0,93,0.00,,,0.13,VWS V12.07,2013-02-23 00:28:00,
2013-02-22 18:29:00,21.4,19.7,29.81,NE,35,0.0,0.0,93,0.00,,,0.13,VWS V12.07,2013-02-23 00:29:00,
2013-02-22 18:31:00,21.4,19.7,29.82,NE,35,0.0,0.0,93,0.00,,,0.13,VWS V12.07,2013-02-23 00:31:00,
2013-02-22 18:32:00,21.4,19.7,29.82,NE,35,0.0,0.0,93,0.00,,,0.13,VWS V12.07,2013-02-23 00:32:00,
2013-02-22 18:34:00,21.4,19.7,29.82,NE,35,0.0,0.0,93,0.00,,,0.13,VWS V12.07,2013-02-23 00:34:00,
2013-02-22 18:36:00,21.4,19.7,29.82,NE,35,0.0,1.0,93,0.00,,,0.13,VWS V12.07,2013-02-23 00:36:00,
2013-02-22 18:38:00,21.3,19.6,29.82,NE,35,0.0,1.0,93,0.00,,,0.13,VWS V12.07,2013-02-23 00:38:00,
2013-02-22 18:39:00,21.3,19.6,29.82,NE,35,0.0,1.0,93,0.00,,,0.13,VWS V12.07,2013-02-23 00:39:00,
2013-02-22 18:41:00,21.3,19.6,29.82,NE,35,0.0,1.0,93,0.00,,,0.13,VWS V12.07,2013-02-23 00:41:00,
2013-02-22 18:43:00,21.3,19.6,29.82,NE,35,0.0,1.0,93,0.00,,,0.13,VWS V12.07,2013-02-23 00:43:00,
2013-02-22 18:45:00,21.3,19.6,29.82,NE,35,0.0,1.0,93,0.00,,,0.13,VWS V12.07,2013-02-23 00:45:00,
2013-02-22 18:46:00,21.1,19.4,29.82,NE,35,1.0,2.0,93,0.00,,,0.13,VWS V12.07,2013-02-23 00:46:00,
2013-02-22 18:48:00,21.1,19.4,29.82,NE,35,1.0,2.0,93,0.00,,,0.13,VWS V12.07,2013-02-23 00:48:00,
2013-02-22 18:50:00,21.1,19.4,29.82,NE,35,0.0,2.0,93,0.00,,,0.13,VWS V12.07,2013-02-23 00:50:00,
2013-02-22 18:52:00,21.1,19.4,29.82,NE,35,0.0,2.0,93,0.00,,,0.13,VWS V12.07,2013-02-23 00:52:00,
2013-02-22 18:53:00,21.0,19.3,29.82,NE,35,0.0,2.0,93,0.00,,,0.13,VWS V12.07,2013-02-23 00:53:00,
2013-02-22 18:55:00,21.0,19.3,29.82,NE,35,0.0,2.0,93,0.00,,,0.13,VWS V12.07,2013-02-23 00:55:00,
2013-02-22 18:56:00,21.0,19.3,29.82,NE,35,1.0,2.0,93,0.00,,,0.13,VWS V12.07,2013-02-23 00:56:00,
2013-02-22 18:57:00,21.0,19.3,29.82,NE,35,0.0,2.0,93,0.00,,,0.13,VWS V12.07,2013-02-23 00:57:00,
2013-02-22 18:58:00,21.0,19.3,29.82,NE,35,0.0,1.0,93,0.00,,,0.13,VWS V12.07,2013-02-23 00:58:00,
2013-02-22 19:00:00,20.8,19.1,29.82,NE,35,0.0,1.0,93,0.00,,,0.13,VWS V12.07,2013-02-23 01:00:00,
2013-02-22 19:01:00,20.8,19.1,29.82,NE,35,0.0,1.0,93,0.00,,,0.13,VWS V12.07,2013-02-23 01:01:00,
2013-02-22 19:02:00,20.8,19.1,29.82,NE,35,0.0,1.0,93,0.00,,,0.13,VWS V12.07,2013-02-23 01:02:00,
2013-02-22 19:03:00,20.8,19.1,29.82,NE,35,0.0,0.0,93,0.00,,,0.13,VWS V12.07,2013-02-23 01:03:00,
2013-02-22 19:05:00,20.6,18.9,29.82,NE,35,0.0,1.0,93,0.00,,,0.13,VWS V12.07,2013-02-23 01:05:00,
2013-02-22 19:06:00,20.6,18.9,29.82,NE,35,0.0,1.0,93,0.00,,,0.13,VWS V12.07,2013-02-23 01:06:00,
2013-02-22 19:07:00,20.6,18.9,29.82,NE,35,0.0,1.0,93,0.00,,,0.13,VWS V12.07,2013-02-23 01:07:00,
2013-02-22 19:08:00,20.6,18.9,29.82,NE,35,0.0,1.0,93,0.00,,,0.13,VWS V12.07,2013-02-23 01:08:00,
2013-02-22 19:10:00,20.5,18.8,29.82,NE,35,0.0,1.0,93,0.00,,,0.13,VWS V12.07,2013-02-23 01:10:00,
2013-02-22 19:11:00,20.5,18.8,29.82,NE,35,0.0,1.0,93,0.00,,,0.13,VWS V12.07,2013-02-23 01:11:00,
2013-02-22 19:12:00,20.5,18.8,29.82,NE,35,0.0,1.0,93,0.00,,,0.13,VWS V12.07,2013-02-23 01:12:00,
2013-02-22 19:14:00,20.5,18.8,29.82,NE,35,0.0,1.0,93,0.00,,,0.13,VWS V12.07,2013-02-23 01:14:00,
2013-02-22 19:15:00,20.5,18.8,29.81,NE,35,0.0,1.0,93,0.00,,,0.13,VWS V12.07,2013-02-23 01:15:00,
2013-02-22 19:16:00,20.5,18.8,29.81,NE,35,0.0,1.0,93,0.00,,,0.13,VWS V12.07,2013-02-23 01:16:00,
2013-02-22 19:17:00,20.3,18.6,29.81,NE,35,0.0,1.0,93,0.00,,,0.13,VWS V12.07,2013-02-23 01:17:00,
2013-02-22 19:19:00,20.3,18.6,29.81,NE,35,0.0,0.0,93,0.00,,,0.13,VWS V12.07,2013-02-23 01:19:00,
2013-02-22 19:20:00,20.3,18.6,29.81,NE,35,0.0,0.0,93,0.00,,,0.13,VWS V12.07,2013-02-23 01:20:00,
2013-02-22 19:22:00,20.3,18.6,29.81,NE,35,0.0,0.0,93,0.00,,,0.13,VWS V12.07,2013-02-23 01:22:00,
2013-02-22 19:24:00,20.2,18.5,29.81,NE,35,0.0,0.0,93,0.00,,,0.13,VWS V12.07,2013-02-23 01:24:00,
2013-02-22 19:26:00,20.2,18.2,29.81,NE,35,0.0,0.0,92,0.00,,,0.13,VWS V12.07,2013-02-23 01:26:00,
2013-02-22 19:27:00,20.2,18.2,29.81,NE,35,0.0,0.0,92,0.00,,,0.13,VWS V12.07,2013-02-23 01:27:00,
2013-02-22 19:28:00,20.2,18.2,29.81,NE,35,0.0,0.0,92,0.00,,,0.13,VWS V12.07,2013-02-23 01:28:00,
2013-02-22 19:29:00,20.2,18.2,29.81,NE,35,0.0,0.0,92,0.00,,,0.13,VWS V12.07,2013-02-23 01:29:00,
2013-02-22 19:31:00,20.0,18.0,29.82,NE,35,0.0,0.0,92,0.00,,,0.13,VWS V12.07,2013-02-23 01:31:00,
2013-02-22 19:32:00,20.0,18.3,29.82,NE,35,0.0,0.0,93,0.00,,,0.13,VWS V12.07,2013-02-23 01:32:00,
2013-02-22 19:33:00,20.0,18.3,29.82,NE,35,0.0,0.0,93,0.00,,,0.13,VWS V12.07,2013-02-23 01:33:00,
2013-02-22 19:34:00,20.0,18.3,29.82,NE,35,0.0,0.0,93,0.00,,,0.13,VWS V12.07,2013-02-23 01:34:00,
2013-02-22 19:36:00,20.0,18.3,29.82,NE,35,0.0,0.0,93,0.00,,,0.13,VWS V12.07,2013-02-23 01:36:00,
2013-02-22 19:38:00,19.9,18.2,29.82,NE,35,0.0,0.0,93,0.00,,,0.13,VWS V12.07,2013-02-23 01:38:00,
2013-02-22 19:39:00,19.9,18.0,29.82,NE,35,0.0,0.0,92,0.00,,,0.13,VWS V12.07,2013-02-23 01:39:00,
2013-02-22 19:41:00,19.9,18.0,29.82,NE,35,0.0,0.0,92,0.00,,,0.13,VWS V12.07,2013-02-23 01:41:00,
2013-02-22 19:43:00,19.9,18.0,29.82,NE,35,0.0,0.0,92,0.00,,,0.13,VWS V12.07,2013-02-23 01:43:00,
2013-02-22 19:44:00,19.7,18.0,29.82,NE,35,0.0,0.0,93,0.00,,,0.13,VWS V12.07,2013-02-23 01:44:00,
2013-02-22 19:46:00,19.7,18.0,29.82,NE,35,0.0,0.0,93,0.00,,,0.13,VWS V12.07,2013-02-23 01:46:00,
2013-02-22 19:48:00,19.7,18.0,29.82,NE,35,0.0,0.0,93,0.00,,,0.13,VWS V12.07,2013-02-23 01:48:00,
2013-02-22 19:49:00,19.7,18.0,29.82,NE,35,0.0,0.0,93,0.00,,,0.13,VWS V12.07,2013-02-23 01:49:00,
2013-02-22 19:50:00,19.7,18.0,29.82,NE,35,0.0,0.0,93,0.00,,,0.13,VWS V12.07,2013-02-23 01:50:00,
2013-02-22 19:51:00,19.7,18.0,29.82,NE,35,0.0,0.0,93,0.00,,,0.13,VWS V12.07,2013-02-23 01:51:00,
2013-02-22 19:53:00,19.7,18.0,29.82,NE,35,0.0,0.0,93,0.00,,,0.13,VWS V12.07,2013-02-23 01:53:00,
2013-02-22 19:54:00,19.7,18.0,29.82,NE,35,0.0,0.0,93,0.00,,,0.13,VWS V12.07,2013-02-23 01:54:00,
2013-02-22 19:55:00,19.7,18.0,29.82,NE,35,0.0,0.0,93,0.00,,,0.13,VWS V12.07,2013-02-23 01:55:00,
2013-02-22 19:57:00,19.9,18.2,29.82,NE,35,0.0,0.0,93,0.00,,,0.13,VWS V12.07,2013-02-23 01:57:00,
2013-02-22 19:58:00,19.9,18.2,29.82,NE,35,0.0,0.0,93,0.00,,,0.13,VWS V12.07,2013-02-23 01:58:00,
2013-02-22 19:59:00,19.9,18.2,29.82,NE,35,0.0,0.0,93,0.00,,,0.13,VWS V12.07,2013-02-23 01:59:00,
2013-02-22 20:00:00,19.9,18.2,29.81,NE,35,0.0,0.0,93,0.00,,,0.13,VWS V12.07,2013-02-23 02:00:00,
2013-02-22 20:02:00,19.7,18.0,29.81,NE,35,0.0,0.0,93,0.00,,,0.13,VWS V12.07,2013-02-23 02:02:00,
2013-02-22 20:03:00,19.7,18.0,29.81,NE,35,0.0,0.0,93,0.00,,,0.13,VWS V12.07,2013-02-23 02:03:00,
2013-02-22 20:05:00,19.7,18.0,29.81,NE,35,0.0,0.0,93,0.00,,,0.13,VWS V12.07,2013-02-23 02:05:00,
2013-02-22 20:08:00,19.5,17.6,29.81,NE,35,0.0,0.0,92,0.00,,,0.13,VWS V12.07,2013-02-23 02:08:00,
2013-02-22 20:09:00,19.5,17.8,29.81,NE,35,0.0,0.0,93,0.00,,,0.13,VWS V12.07,2013-02-23 02:09:00,
2013-02-22 20:10:00,19.5,17.6,29.81,NE,35,0.0,0.0,92,0.00,,,0.13,VWS V12.07,2013-02-23 02:10:00,
2013-02-22 20:11:00,19.5,17.6,29.81,NE,35,0.0,0.0,92,0.00,,,0.13,VWS V12.07,2013-02-23 02:11:00,
2013-02-22 20:13:00,19.4,17.5,29.81,NE,35,0.0,0.0,92,0.00,,,0.13,VWS V12.07,2013-02-23 02:13:00,
2013-02-22 20:14:00,19.4,17.5,29.81,NE,35,0.0,0.0,92,0.00,,,0.13,VWS V12.07,2013-02-23 02:14:00,
2013-02-22 20:15:00,19.4,17.5,29.81,NE,35,0.0,0.0,92,0.00,,,0.13,VWS V12.07,2013-02-23 02:15:00,
2013-02-22 20:16:00,19.2,17.3,29.81,NE,35,0.0,0.0,92,0.00,,,0.13,VWS V12.07,2013-02-23 02:16:00,
2013-02-22 20:18:00,19.2,17.3,29.81,NE,35,0.0,0.0,92,0.00,,,0.13,VWS V12.07,2013-02-23 02:18:00,
2013-02-22 20:19:00,19.2,17.3,29.81,NE,35,0.0,0.0,92,0.00,,,0.13,VWS V12.07,2013-02-23 02:19:00,
2013-02-22 20:20:00,19.1,17.2,29.81,NE,35,0.0,0.0,92,0.00,,,0.13,VWS V12.07,2013-02-23 02:20:00,
2013-02-22 20:21:00,19.1,17.2,29.81,NE,35,0.0,0.0,92,0.00,,,0.13,VWS V12.07,2013-02-23 02:21:00,
2013-02-22 20:23:00,19.1,17.2,29.81,NE,35,0.0,0.0,92,0.00,,,0.13,VWS V12.07,2013-02-23 02:23:00,
2013-02-22 20:25:00,18.9,17.0,29.81,NE,35,0.0,0.0,92,0.00,,,0.13,VWS V12.07,2013-02-23 02:25:00,
2013-02-22 20:26:00,18.9,17.0,29.81,NE,35,0.0,0.0,92,0.00,,,0.13,VWS V12.07,2013-02-23 02:26:00,
2013-02-22 20:28:00,18.9,17.0,29.81,NE,35,0.0,0.0,92,0.00,,,0.13,VWS V12.07,2013-02-23 02:28:00,
2013-02-22 20:30:00,18.9,17.0,29.81,NE,35,0.0,0.0,92,0.00,,,0.13,VWS V12.07,2013-02-23 02:30:00,
2013-02-22 20:31:00,18.8,16.9,29.81,NE,35,0.0,0.0,92,0.00,,,0.13,VWS V12.07,2013-02-23 02:31:00,
2013-02-22 20:32:00,18.8,16.9,29.81,NE,35,0.0,0.0,92,0.00,,,0.13,VWS V12.07,2013-02-23 02:32:00,
2013-02-22 20:34:00,18.8,16.9,29.81,NE,35,0.0,0.0,92,0.00,,,0.13,VWS V12.07,2013-02-23 02:34:00,
2013-02-22 20:35:00,18.8,16.9,29.81,NE,35,0.0,0.0,92,0.00,,,0.13,VWS V12.07,2013-02-23 02:35:00,
2013-02-22 20:37:00,18.8,16.9,29.81,NE,35,0.0,0.0,92,0.00,,,0.13,VWS V12.07,2013-02-23 02:37:00,
2013-02-22 20:39:00,18.8,16.9,29.81,NE,35,0.0,0.0,92,0.00,,,0.13,VWS V12.07,2013-02-23 02:39:00,
2013-02-22 20:40:00,18.8,16.9,29.81,NE,35,0.0,0.0,92,0.00,,,0.13,VWS V12.07,2013-02-23 02:40:00,
2013-02-22 20:42:00,18.8,16.9,29.81,NE,35,0.0,0.0,92,0.00,,,0.13,VWS V12.07,2013-02-23 02:42:00,
2013-02-22 20:44:00,18.8,16.9,29.81,NE,35,0.0,0.0,92,0.00,,,0.13,VWS V12.07,2013-02-23 02:44:00,
2013-02-22 20:45:00,18.8,16.9,29.81,NE,35,0.0,0.0,92,0.00,,,0.13,VWS V12.07,2013-02-23 02:45:00,
2013-02-22 20:47:00,18.8,17.1,29.81,NE,35,0.0,0.0,93,0.00,,,0.13,VWS V12.07,2013-02-23 02:47:00,
2013-02-22 20:49:00,18.8,17.1,29.81,NE,35,0.0,0.0,93,0.00,,,0.13,VWS V12.07,2013-02-23 02:49:00,
2013-02-22 20:51:00,18.8,17.1,29.81,NE,35,0.0,0.0,93,0.00,,,0.13,VWS V12.07,2013-02-23 02:51:00,
2013-02-22 20:52:00,18.8,17.1,29.81,NE,35,0.0,0.0,93,0.00,,,0.13,VWS V12.07,2013-02-23 02:52:00,
2013-02-22 20:54:00,18.8,17.1,29.81,NE,35,0.0,0.0,93,0.00,,,0.13,VWS V12.07,2013-02-23 02:54:00,
2013-02-22 20:56:00,18.8,17.1,29.81,NE,35,0.0,0.0,93,0.00,,,0.13,VWS V12.07,2013-02-23 02:56:00,
2013-02-22 20:57:00,18.9,17.2,29.81,NE,35,0.0,0.0,93,0.00,,,0.13,VWS V12.07,2013-02-23 02:57:00,
2013-02-22 20:59:00,18.9,17.2,29.80,NE,35,0.0,0.0,93,0.00,,,0.13,VWS V12.07,2013-02-23 02:59:00,
2013-02-22 21:02:00,18.9,17.2,29.80,NE,35,0.0,0.0,93,0.00,,,0.13,VWS V12.07,2013-02-23 03:02:00,
2013-02-22 21:03:00,18.9,17.2,29.80,NE,35,0.0,0.0,93,0.00,,,0.13,VWS V12.07,2013-02-23 03:03:00,
2013-02-22 21:05:00,18.9,17.2,29.80,NE,35,0.0,0.0,93,0.00,,,0.13,VWS V12.07,2013-02-23 03:05:00,
2013-02-22 21:07:00,18.9,17.2,29.80,NE,35,0.0,0.0,93,0.00,,,0.13,VWS V12.07,2013-02-23 03:07:00,
2013-02-22 21:08:00,18.8,17.1,29.80,NE,35,0.0,0.0,93,0.00,,,0.13,VWS V12.07,2013-02-23 03:08:00,
2013-02-22 21:10:00,18.8,17.1,29.80,NE,35,0.0,0.0,93,0.00,,,0.13,VWS V12.07,2013-02-23 03:10:00,
2013-02-22 21:12:00,18.9,17.2,29.80,NE,35,0.0,0.0,93,0.00,,,0.13,VWS V12.07,2013-02-23 03:12:00,
2013-02-22 21:13:00,18.9,17.2,29.80,NE,35,0.0,0.0,93,0.00,,,0.13,VWS V12.07,2013-02-23 03:13:00,
2013-02-22 21:16:00,18.9,17.2,29.80,NE,35,0.0,0.0,93,0.00,,,0.13,VWS V12.07,2013-02-23 03:16:00,
2013-02-22 21:17:00,18.9,17.2,29.80,NE,35,0.0,0.0,93,0.00,,,0.13,VWS V12.07,2013-02-23 03:17:00,
2013-02-22 21:18:00,18.9,17.2,29.80,NE,35,0.0,0.0,93,0.00,,,0.13,VWS V12.07,2013-02-23 03:18:00,
2013-02-22 21:21:00,18.9,17.2,29.80,NE,35,0.0,0.0,93,0.00,,,0.13,VWS V12.07,2013-02-23 03:21:00,
2013-02-22 21:22:00,18.9,17.2,29.80,NE,35,0.0,0.0,93,0.00,,,0.13,VWS V12.07,2013-02-23 03:22:00,
2013-02-22 21:23:00,18.9,17.2,29.80,NE,35,0.0,0.0,93,0.00,,,0.13,VWS V12.07,2013-02-23 03:23:00,
2013-02-22 21:26:00,18.9,17.2,29.80,NE,35,0.0,0.0,93,0.00,,,0.13,VWS V12.07,2013-02-23 03:26:00,
2013-02-22 21:27:00,18.9,17.2,29.80,NE,35,0.0,0.0,93,0.00,,,0.13,VWS V12.07,2013-02-23 03:27:00,
2013-02-22 21:28:00,18.9,17.2,29.80,NE,35,0.0,0.0,93,0.00,,,0.13,VWS V12.07,2013-02-23 03:28:00,
2013-02-22 21:31:00,18.8,17.1,29.79,NE,35,0.0,0.0,93,0.00,,,0.13,VWS V12.07,2013-02-23 03:31:00,
2013-02-22 21:33:00,18.8,17.1,29.79,NE,35,0.0,0.0,93,0.00,,,0.13,VWS V12.07,2013-02-23 03:33:00,
2013-02-22 21:34:00,18.8,17.1,29.79,NE,35,0.0,0.0,93,0.00,,,0.13,VWS V12.07,2013-02-23 03:34:00,
2013-02-22 21:36:00,18.8,17.1,29.79,NE,35,0.0,0.0,93,0.00,,,0.13,VWS V12.07,2013-02-23 03:36:00,
2013-02-22 21:38:00,18.8,17.1,29.79,NE,35,0.0,0.0,93,0.00,,,0.13,VWS V12.07,2013-02-23 03:38:00,
2013-02-22 21:39:00,18.8,17.1,29.79,NE,35,0.0,0.0,93,0.00,,,0.13,VWS V12.07,2013-02-23 03:39:00,
2013-02-22 21:42:00,18.8,17.1,29.79,NE,35,0.0,0.0,93,0.00,,,0.13,VWS V12.07,2013-02-23 03:42:00,
2013-02-22 21:43:00,18.8,17.1,29.79,NE,35,0.0,0.0,93,0.00,,,0.13,VWS V12.07,2013-02-23 03:43:00,
2013-02-22 21:44:00,18.8,17.1,29.79,NE,35,0.0,0.0,93,0.00,,,0.13,VWS V12.07,2013-02-23 03:44:00,
2013-02-22 21:45:00,18.9,17.2,29.79,NE,35,0.0,0.0,93,0.00,,,0.13,VWS V12.07,2013-02-23 03:45:00,
2013-02-22 21:47:00,18.8,17.1,29.79,NE,35,0.0,0.0,93,0.00,,,0.13,VWS V12.07,2013-02-23 03:47:00,
2013-02-22 21:48:00,18.8,17.1,29.79,NE,35,0.0,0.0,93,0.00,,OVC055,0.13,VWS V12.07,2013-02-23 03:48:00,
2013-02-22 21:49:00,18.8,17.1,29.79,NE,35,0.0,0.0,93,0.00,,OVC055,0.13,VWS V12.07,2013-02-23 03:49:00,
2013-02-22 21:50:00,18.8,17.1,29.79,NE,35,0.0,0.0,93,0.00,,,0.13,VWS V12.07,2013-02-23 03:50:00,
2013-02-22 21:53:00,18.8,17.1,29.79,NE,35,0.0,0.0,93,0.00,,,0.13,VWS V12.07,2013-02-23 03:53:00,
2013-02-22 21:54:00,18.8,17.1,29.79,NE,35,0.0,0.0,93,0.00,,,0.13,VWS V12.07,2013-02-23 03:54:00,
2013-02-22 21:55:00,18.8,17.1,29.79,NE,35,0.0,0.0,93,0.00,,,0.13,VWS V12.07,2013-02-23 03:55:00,
2013-02-22 21:58:00,18.8,17.1,29.79,NE,35,0.0,0.0,93,0.00,,,0.13,VWS V12.07,2013-02-23 03:58:00,
2013-02-22 21:59:00,18.8,17.1,29.79,NE,35,0.0,0.0,93,0.00,,,0.13,VWS V12.07,2013-02-23 03:59:00,
2013-02-22 22:00:00,18.8,17.1,29.79,NE,35,0.0,0.0,93,0.00,,,0.13,VWS V12.07,2013-02-23 04:00:00,
2013-02-22 22:03:00,18.8,16.9,29.79,NE,35,0.0,0.0,92,0.00,,,0.13,VWS V12.07,2013-02-23 04:03:00,
2013-02-22 22:04:00,18.8,17.1,29.79,NE,35,0.0,0.0,93,0.00,,,0.13,VWS V12.07,2013-02-23 04:04:00,
2013-02-22 22:05:00,18.8,17.1,29.79,NE,35,0.0,0.0,93,0.00,,,0.13,VWS V12.07,2013-02-23 04:05:00,
2013-02-22 22:08:00,18.8,16.9,29.79,NE,35,0.0,0.0,92,0.00,,,0.13,VWS V12.07,2013-02-23 04:08:00,
2013-02-22 22:09:00,18.8,16.9,29.79,NE,35,0.0,0.0,92,0.00,,,0.13,VWS V12.07,2013-02-23 04:09:00,
2013-02-22 22:10:00,18.8,16.9,29.79,NE,35,0.0,0.0,92,0.00,,,0.13,VWS V12.07,2013-02-23 04:10:00,
2013-02-22 22:13:00,18.8,16.9,29.79,NE,35,0.0,0.0,92,0.00,,,0.13,VWS V12.07,2013-02-23 04:13:00,
2013-02-22 22:14:00,18.8,16.9,29.79,NE,35,0.0,0.0,92,0.00,,,0.13,VWS V12.07,2013-02-23 04:14:00,
2013-02-22 22:15:00,18.8,16.9,29.78,NE,35,0.0,0.0,92,0.00,,,0.13,VWS V12.07,2013-02-23 04:15:00,
2013-02-22 22:16:00,18.8,16.9,29.78,NE,35,0.0,0.0,92,0.00,,,0.13,VWS V12.07,2013-02-23 04:16:00,
2013-02-22 22:18:00,18.8,16.9,29.78,NE,35,0.0,0.0,92,0.00,,,0.13,VWS V12.07,2013-02-23 04:18:00,
2013-02-22 22:19:00,18.8,16.9,29.78,NE,35,0.0,0.0,92,0.00,,,0.13,VWS V12.07,2013-02-23 04:19:00,
2013-02-22 22:20:00,18.8,16.9,29.78,NE,35,0.0,0.0,92,0.00,,,0.13,VWS V12.07,2013-02-23 04:20:00,
2013-02-22 22:21:00,18.8,16.9,29.78,NE,35,0.0,0.0,92,0.00,,,0.13,VWS V12.07,2013-02-23 04:21:00,
2013-02-22 22:23:00,18.8,16.9,29.78,NE,35,0.0,0.0,92,0.00,,,0.13,VWS V12.07,2013-02-23 04:23:00,
2013-02-22 22:24:00,18.8,17.1,29.78,NE,35,0.0,0.0,93,0.00,,,0.13,VWS V12.07,2013-02-23 04:24:00,
2013-02-22 22:25:00,18.8,16.9,29.78,NE,35,0.0,0.0,92,0.00,,,0.13,VWS V12.07,2013-02-23 04:25:00,
2013-02-22 22:26:00,18.8,16.9,29.78,NE,35,0.0,0.0,92,0.00,,,0.13,VWS V12.07,2013-02-23 04:26:00,
2013-02-22 22:28:00,18.8,16.9,29.78,NE,35,0.0,0.0,92,0.00,,,0.13,VWS V12.07,2013-02-23 04:28:00,
2013-02-22 22:29:00,18.8,16.9,29.79,NE,35,0.0,0.0,92,0.00,,,0.13,VWS V12.07,2013-02-23 04:29:00,
2013-02-22 22:30:00,18.8,16.9,29.79,NE,35,0.0,0.0,92,0.00,,,0.13,VWS V12.07,2013-02-23 04:30:00,
2013-02-22 22:31:00,18.8,16.9,29.79,NE,35,0.0,0.0,92,0.00,,,0.13,VWS V12.07,2013-02-23 04:31:00,
2013-02-22 22:33:00,18.8,16.9,29.79,NE,35,0.0,0.0,92,0.00,,,0.13,VWS V12.07,2013-02-23 04:33:00,
2013-02-22 22:34:00,18.8,16.9,29.79,NE,35,0.0,0.0,92,0.00,,,0.13,VWS V12.07,2013-02-23 04:34:00,
2013-02-22 22:35:00,18.8,16.9,29.79,NE,35,0.0,0.0,92,0.00,,,0.13,VWS V12.07,2013-02-23 04:35:00,
2013-02-22 22:37:00,18.8,16.9,29.79,NE,35,0.0,0.0,92,0.00,,,0.13,VWS V12.07,2013-02-23 04:37:00,
2013-02-22 22:38:00,18.8,16.9,29.79,NE,35,0.0,0.0,92,0.00,,,0.13,VWS V12.07,2013-02-23 04:38:00,
2013-02-22 22:40:00,18.8,16.9,29.79,NE,35,0.0,0.0,92,0.00,,,0.13,VWS V12.07,2013-02-23 04:40:00,
2013-02-22 22:41:00,18.8,16.9,29.79,NE,35,0.0,0.0,92,0.00,,,0.13,VWS V12.07,2013-02-23 04:41:00,
2013-02-22 22:42:00,18.8,16.9,29.79,NE,35,0.0,0.0,92,0.00,,,0.13,VWS V12.07,2013-02-23 04:42:00,
2013-02-22 22:43:00,18.8,16.9,29.79,NE,35,0.0,0.0,92,0.00,,,0.13,VWS V12.07,2013-02-23 04:43:00,
2013-02-22 22:45:00,18.8,16.9,29.79,NE,35,0.0,0.0,92,0.00,,,0.13,VWS V12.07,2013-02-23 04:45:00,
2013-02-22 22:46:00,18.8,16.9,29.79,NE,35,0.0,0.0,92,0.00,,,0.13,VWS V12.07,2013-02-23 04:46:00,
2013-02-22 22:48:00,18.8,16.9,29.79,NE,35,0.0,0.0,92,0.00,,,0.13,VWS V12.07,2013-02-23 04:48:00,
2013-02-22 22:49:00,18.8,16.9,29.79,NE,35,0.0,0.0,92,0.00,,,0.13,VWS V12.07,2013-02-23 04:49:00,
2013-02-22 22:51:00,18.8,16.9,29.79,NE,35,0.0,0.0,92,0.00,,,0.13,VWS V12.07,2013-02-23 04:51:00,
2013-02-22 22:53:00,18.8,16.9,29.79,NE,35,0.0,0.0,92,0.00,,,0.13,VWS V12.07,2013-02-23 04:53:00,
2013-02-22 22:54:00,18.6,16.7,29.79,NE,35,0.0,0.0,92,0.00,,,0.13,VWS V12.07,2013-02-23 04:54:00,
2013-02-22 22:56:00,18.6,16.7,29.79,NE,35,0.0,0.0,92,0.00,,,0.13,VWS V12.07,2013-02-23 04:56:00,
2013-02-22 22:58:00,18.6,16.7,29.79,NE,35,0.0,0.0,92,0.00,,,0.13,VWS V12.07,2013-02-23 04:58:00,
2013-02-22 23:00:00,18.6,16.7,29.78,NE,35,0.0,0.0,92,0.00,,,0.13,VWS V12.07,2013-02-23 05:00:00,
2013-02-22 23:05:00,18.4,16.5,29.78,NE,35,0.0,0.0,92,0.00,,,0.13,VWS V12.07,2013-02-23 05:05:00,
2013-02-22 23:10:00,18.4,16.5,29.78,NE,35,0.0,0.0,92,0.00,,,0.13,VWS V12.07,2013-02-23 05:10:00,
2013-02-22 23:15:00,18.3,16.4,29.78,NE,35,0.0,0.0,92,0.00,,,0.13,VWS V12.07,2013-02-23 05:15:00,
2013-02-22 23:20:00,18.3,16.4,29.78,NE,35,0.0,0.0,92,0.00,,,0.13,VWS V12.07,2013-02-23 05:20:00,
2013-02-22 23:21:00,18.3,16.4,29.78,NE,35,0.0,0.0,92,0.00,,,0.13,VWS V12.07,2013-02-23 05:21:00,
2013-02-22 23:25:00,18.1,16.2,29.78,NE,35,0.0,0.0,92,0.00,,,0.13,VWS V12.07,2013-02-23 05:25:00,
2013-02-22 23:26:00,18.0,16.1,29.78,NE,35,0.0,0.0,92,0.00,,,0.13,VWS V12.07,2013-02-23 05:26:00,
2013-02-22 23:31:00,17.8,15.9,29.77,NE,35,0.0,0.0,92,0.00,,,0.13,VWS V12.07,2013-02-23 05:31:00,
2013-02-22 23:36:00,17.7,15.5,29.77,NE,35,0.0,0.0,91,0.00,,,0.13,VWS V12.07,2013-02-23 05:36:00,
2013-02-22 23:41:00,17.3,15.1,29.77,NE,35,0.0,0.0,91,0.00,,,0.13,VWS V12.07,2013-02-23 05:41:00,
2013-02-22 23:46:00,17.2,15.0,29.77,NE,35,0.0,0.0,91,0.00,,,0.00,VWS V12.07,2013-02-23 05:46:00,
2013-02-22 23:47:00,17.2,15.0,29.77,NE,35,0.0,0.0,91,0.00,,,0.00,VWS V12.07,2013-02-23 05:47:00,
2013-02-22 23:51:00,16.9,14.7,29.77,NE,35,0.0,0.0,91,0.00,,,0.00,VWS V12.07,2013-02-23 05:51:00,
2013-02-22 23:52:00,16.9,14.7,29.77,NE,35,0.0,0.0,91,0.00,,,0.00,VWS V12.07,2013-02-23 05:52:00,
2013-02-22 23:57:00,16.5,14.1,29.77,NE,35,0.0,0.0,90,0.00,,,0.00,VWS V12.07,2013-02-23 05:57:00,
2013-02-22 23:58:00,16.5,14.1,29.77,NE,35,0.0,0.0,90,0.00,,,0.00,VWS V12.07,2013-02-23 05:58:00,